FW0869 Weather Reports


Display with metric or nautical units.
time (UTC)temp
F
wind
direction
speed
MPH
gust
MPH
rain 1hr
in
rain 24hr
in
rain mn
in
humidity
%
barometer
mb
20260901070217 61 94 2.0 4.0 0.02 0.16 0.02 87 1023.9
20260901070155 61 94 2.0 4.0 0.02 0.16 0.02 87 1023.9
20260901070115 61 94 2.0 4.0 0.02 0.16 0.02 87 1024.1
20260901070020 61 187 2.0 5.0 0.02 0.16 0.02 87 1024.2
20260901065815 61 218 2.0 6.0 0.01 0.15 0.02 87 1024.3
20260901065713 61 218 3.0 6.0 0.01 0.15 0.01 87 1024.3
20260901065654 61 218 3.0 6.0 0.01 0.15 0.01 87 1024.3
20260901065613 61 218 3.0 6.0 0.01 0.15 0.01 87 1024.3
20260901065513 61 218 3.0 6.0 0.01 0.15 0.01 87 1024.4
20260901065414 60 218 3.0 6.0 0.01 0.15 0.01 87 1024.4
20260901065318 60 219 3.0 6.0 0.01 0.15 0.01 87 1024.4
20260901065151 60 215 3.0 6.0 0.01 0.15 0.01 86 1024.4
20260901065117 60 200 3.0 6.0 0.01 0.15 0.01 86 1024.4
20260901064916 60 205 2.0 6.0 0.01 0.15 0.01 85 1024.3
20260901064708 60 172 1.0 6.0 0.01 0.15 0.01 85 1024.2
20260901064644 60 172 1.0 6.0 0.01 0.15 0.01 85 1024.2
20260901064607 60 172 1.0 5.0 0.01 0.15 0.01 85 1024.1
20260901064506 60 113 0.0 4.0 0.01 0.15 0.01 85 1023.9
20260901064406 60 113 0.0 3.0 0.01 0.15 0.01 85 1023.9
20260901064159 60 113 1.0 3.0 0.01 0.15 0.01 85 1023.8
20260901064139 61 113 1.0 3.0 0.01 0.15 0.01 85 1023.8
20260901064100 61 113 0.0 3.0 0.01 0.15 0.01 85 1023.8
20260901063959 61 113 0.0 3.0 0.01 0.15 0.01 85 1023.8
20260901063905 61 113 1.0 3.0 0.01 0.15 0.01 85 1023.8
20260901063633 61 113 1.0 4.0 0.01 0.15 0.01 85 1023.8
20260901063600 61 113 1.0 4.0 0.01 0.15 0.01 85 1023.8
20260901063355 61 113 2.0 4.0 0.01 0.15 0.01 85 1023.8
20260901063251 61 113 2.0 4.0 0.01 0.15 0.01 85 1023.8
20260901063234 61 113 2.0 4.0 0.01 0.15 0.01 85 1023.8
20260901063049 61 113 2.0 4.0 0.01 0.15 0.01 85 1023.8
20260901062948 61 113 2.0 4.0 0.01 0.15 0.01 85 1023.9
20260901062847 61 113 2.0 4.0 0.01 0.15 0.01 85 1023.9
20260901062746 61 113 2.0 4.0 0.01 0.15 0.01 84 1023.9
20260901062621 61 113 2.0 4.0 0.01 0.15 0.01 84 1023.9
20260901062543 61 113 2.0 4.0 0.01 0.15 0.01 84 1023.9
20260901062445 61 113 2.0 3.0 0.01 0.15 0.01 84 1023.9
20260901062243 61 113 2.0 4.0 0.01 0.15 0.01 84 1023.8
20260901062114 61 113 2.0 4.0 0.01 0.15 0.01 84 1023.8
20260901062035 61 113 2.0 4.0 0.01 0.15 0.01 84 1023.7
20260901061936 61 113 2.0 4.0 0.01 0.15 0.01 84 1023.8
20260901061834 61 113 3.0 4.0 0.01 0.15 0.01 84 1023.7
20260901061740 61 113 3.0 6.0 0.01 0.15 0.01 84 1023.8
20260901061610 61 113 3.0 6.0 0.01 0.15 0.01 84 1023.8
20260901061532 61 113 3.0 6.0 0.01 0.15 0.01 84 1023.8
20260901061429 61 113 3.0 6.0 0.00 0.14 0.00 84 1023.9
20260901061330 61 113 3.0 6.0 0.00 0.14 0.00 84 1023.8
20260901061103 61 98 3.0 6.0 0.00 0.14 0.00 84 1023.8
20260901061024 61 166 3.0 6.0 0.00 0.14 0.00 84 1024.1
20260901060923 61 166 3.0 6.0 0.00 0.14 0.00 84 1024.1
20260901060828 61 166 2.0 6.0 0.00 0.14 0.00 83 1024.3
20260901060622 61 166 2.0 5.0 0.00 0.14 0.00 83 1024.2
20260901060556 61 196 2.0 4.0 0.00 0.14 0.00 83 1024.2
20260901060520 61 196 2.0 4.0 0.00 0.14 0.00 83 1024.2
20260901060424 61 196 2.0 4.0 0.00 0.14 0.00 83 1024.2
20260901060216 61 303 2.0 4.0 0.00 0.14 0.00 83 1024.1
20260901060157 61 303 2.0 4.0 0.00 0.14 0.00 83 1023.9
20260901060013 61 303 2.0 4.0 0.00 0.14 0.00 83 1023.9
20260901055912 61 303 2.0 4.0 0.00 0.14 0.14 82 1023.9
20260901055817 61 303 2.0 4.0 0.00 0.14 0.14 82 1023.8
20260901055618 61 303 2.0 4.0 0.00 0.14 0.14 82 1023.7
20260901055612 61 303 2.0 4.0 0.00 0.14 0.14 82 1023.7
20260901055405 61 303 2.0 4.0 0.00 0.14 0.14 83 1023.7
20260901055306 61 303 2.0 4.0 0.00 0.14 0.14 83 1023.7
20260901055204 61 303 2.0 4.0 0.00 0.14 0.14 83 1023.8
20260901055038 61 303 2.0 4.0 0.00 0.14 0.14 83 1023.7
20260901055002 61 303 2.0 4.0 0.00 0.14 0.14 83 1023.7
20260901054900 61 303 2.0 4.0 0.00 0.14 0.14 83 1023.7
20260901054805 61 303 2.0 4.0 0.00 0.14 0.14 83 1023.7
20260901054533 61 303 3.0 4.0 0.00 0.14 0.14 83 1023.7
20260901054456 61 303 3.0 4.0 0.00 0.14 0.14 83 1023.7
20260901054353 61 303 3.0 5.0 0.00 0.14 0.14 82 1023.6
20260901054250 61 303 3.0 5.0 0.00 0.14 0.14 82 1023.6
20260901054148 61 303 3.0 5.0 0.00 0.14 0.14 82 1023.6
20260901054059 61 303 3.0 5.0 0.00 0.14 0.14 82 1023.7
20260901054052 61 303 3.0 5.0 0.00 0.14 0.14 82 1023.6
20260901053847 61 303 2.0 5.0 0.00 0.14 0.14 82 1023.5
20260901053745 61 303 2.0 5.0 0.00 0.14 0.14 82 1023.5
20260901053646 61 303 2.0 5.0 0.00 0.14 0.14 82 1023.5
20260901053520 61 303 2.0 5.0 0.00 0.14 0.14 82 1023.5
20260901053449 61 303 2.0 5.0 0.00 0.14 0.14 82 1023.5
20260901053238 61 303 2.0 4.0 0.00 0.14 0.14 82 1023.5
20260901053135 61 303 2.0 4.0 0.00 0.14 0.14 82 1023.5
20260901053015 61 303 2.0 6.0 0.00 0.14 0.14 82 1023.5
20260901052936 61 303 2.0 6.0 0.00 0.14 0.14 82 1023.5
20260901052836 61 303 3.0 6.0 0.00 0.14 0.14 82 1023.5
20260901052731 61 303 3.0 6.0 0.00 0.14 0.14 82 1023.5
20260901052630 61 303 3.0 6.0 0.00 0.14 0.14 82 1023.5
20260901052615 61 303 3.0 6.0 0.00 0.14 0.14 82 1023.6
20260901052429 61 303 3.0 6.0 0.00 0.14 0.14 83 1023.6
20260901052329 61 303 3.0 6.0 0.00 0.14 0.14 83 1023.6
20260901052228 61 255 3.0 7.0 0.00 0.14 0.14 83 1023.6
20260901052128 61 308 3.0 7.0 0.00 0.14 0.14 83 1023.6
20260901052002 61 281 4.0 8.0 0.00 0.14 0.14 83 1023.6
20260901051938 61 281 4.0 8.0 0.00 0.14 0.14 83 1023.7
20260901051622 61 273 4.0 8.0 0.00 0.14 0.14 84 1023.6
20260901051520 61 270 4.0 8.0 0.00 0.14 0.14 84 1023.6
20260901051457 61 318 4.0 8.0 0.00 0.14 0.14 84 1023.6
20260901051421 61 318 4.0 8.0 0.00 0.14 0.14 84 1023.6
20260901051317 61 292 4.0 8.0 0.00 0.14 0.14 85 1023.6
20260901051219 61 267 4.0 8.0 0.00 0.14 0.14 85 1023.7
20260901051115 61 298 4.0 8.0 0.00 0.14 0.14 85 1023.7
20260901051059 61 296 4.0 8.0 0.00 0.14 0.14 85 1023.7
20260901050914 61 289 4.0 8.0 0.00 0.14 0.14 85 1023.7
20260901050811 61 284 4.0 8.0 0.00 0.14 0.14 85 1023.7
20260901050714 61 300 4.0 8.0 0.00 0.14 0.14 85 1023.7
20260901050506 61 304 4.0 8.0 0.00 0.14 0.14 86 1023.7
20260901050445 61 296 4.0 8.0 0.00 0.14 0.14 86 1023.7
20260901050406 61 298 4.0 8.0 0.00 0.14 0.14 86 1023.7
20260901050311 61 275 4.0 8.0 0.00 0.14 0.14 86 1023.7
20260901050104 61 306 4.0 8.0 0.00 0.14 0.14 86 1023.7
20260901050004 61 284 4.0 8.0 0.00 0.14 0.14 86 1023.7
20260901045943 61 284 4.0 8.0 0.00 0.14 0.14 86 1023.8
20260901045902 61 284 4.0 8.0 0.00 0.14 0.14 86 1023.8
20260901045759 61 292 3.0 8.0 0.00 0.14 0.14 86 1023.7
20260901045653 61 239 3.0 8.0 0.00 0.14 0.14 87 1023.8
20260901045554 61 271 3.0 7.0 0.00 0.14 0.14 87 1023.9
20260901045454 61 304 3.0 6.0 0.00 0.14 0.14 87 1023.8
20260901045432 61 269 3.0 6.0 0.00 0.14 0.14 87 1023.9
20260901045354 61 286 3.0 6.0 0.00 0.14 0.14 87 1023.9
20260901045254 61 284 2.0 5.0 0.00 0.14 0.14 88 1023.9
20260901045148 60 302 2.0 4.0 0.00 0.14 0.14 87 1023.9
20260901045055 60 302 2.0 4.0 0.00 0.14 0.14 87 1023.9
20260901044927 60 308 2.0 4.0 0.00 0.14 0.14 87 1023.9
20260901044854 60 308 2.0 4.0 0.00 0.14 0.14 87 1023.9
20260901044646 60 311 2.0 4.0 0.00 0.14 0.14 87 1023.8
20260901044545 60 311 2.0 4.0 0.00 0.14 0.14 87 1023.9
20260901044527 60 311 2.0 4.0 0.00 0.14 0.14 87 1023.9
20260901044341 60 311 2.0 4.0 0.00 0.14 0.14 87 1023.9
20260901044241 60 311 3.0 4.0 0.00 0.14 0.14 87 1023.9
20260901044138 60 311 3.0 4.0 0.00 0.14 0.14 87 1024.1
20260901044037 60 311 3.0 4.0 0.00 0.14 0.14 87 1024.1
20260901043914 60 311 3.0 4.0 0.00 0.14 0.14 87 1024.1
20260901043842 60 311 3.0 4.0 0.00 0.14 0.14 87 1024.1
20260901043632 60 311 3.0 4.0 0.00 0.14 0.14 88 1024.1
20260901043551 60 311 3.0 4.0 0.00 0.14 0.14 88 1024.1
20260901043544 60 311 3.0 4.0 0.00 0.14 0.14 88 1024.1
20260901043229 60 311 3.0 4.0 0.00 0.14 0.14 88 1024.1
20260901043127 60 311 3.0 4.0 0.00 0.14 0.14 88 1024.1
20260901043028 60 311 3.0 4.0 0.00 0.14 0.14 88 1024.1
20260901042903 60 311 2.0 4.0 0.00 0.14 0.14 88 1024.1
20260901042826 60 311 2.0 4.0 0.00 0.14 0.14 88 1024.1
20260901042723 60 311 2.0 4.0 0.00 0.14 0.14 88 1024.2
20260901042628 60 311 2.0 4.0 0.00 0.14 0.14 88 1024.1
20260901042421 60 311 1.0 4.0 0.00 0.14 0.14 88 1024.2
20260901042356 60 311 1.0 4.0 0.00 0.14 0.14 88 1024.2
20260901042318 60 311 1.0 4.0 0.00 0.14 0.14 88 1024.2
20260901042219 60 311 1.0 4.0 0.00 0.14 0.14 88 1024.2
20260901042123 60 311 0.0 4.0 0.00 0.14 0.14 88 1024.1
20260901041925 60 311 0.0 2.0 0.00 0.14 0.14 88 1024.2
20260901041918 60 311 0.0 2.0 0.00 0.14 0.14 88 1024.2
20260901041711 60 311 0.0 2.0 0.00 0.14 0.14 88 1024.2
20260901041612 60 311 0.0 2.0 0.00 0.14 0.14 88 1024.2
20260901041510 60 311 1.0 2.0 0.00 0.14 0.14 88 1024.2
20260901041410 60 311 1.0 2.0 0.00 0.14 0.14 88 1024.2
20260901041345 60 311 1.0 2.0 0.00 0.14 0.14 88 1024.2
20260901041307 60 311 1.0 2.0 0.00 0.14 0.14 88 1024.1
20260901041205 60 311 1.0 3.0 0.00 0.14 0.14 88 1024.2
20260901041106 60 311 1.0 3.0 0.00 0.14 0.14 88 1024.2
20260901041004 60 311 1.0 3.0 0.00 0.14 0.14 87 1024.1
20260901040904 60 311 1.0 3.0 0.00 0.14 0.14 87 1024.1
20260901040839 60 311 1.0 3.0 0.00 0.14 0.14 87 1024.1
20260901040802 60 311 1.0 3.0 0.00 0.14 0.14 87 1024.1
20260901040659 60 311 1.0 3.0 0.00 0.14 0.14 87 1024.1
20260901040554 61 311 1.0 3.0 0.00 0.14 0.14 87 1024.1
20260901040453 61 311 1.0 3.0 0.00 0.14 0.14 87 1023.9
20260901040353 61 311 1.0 3.0 0.00 0.14 0.14 87 1023.9
20260901040333 61 311 2.0 3.0 0.00 0.14 0.14 87 1023.9
20260901040255 61 311 2.0 3.0 0.00 0.14 0.14 88 1023.9
20260901040154 61 311 2.0 4.0 0.00 0.14 0.14 87 1023.9
20260901040050 61 311 2.0 4.0 0.00 0.14 0.14 87 1023.9
20260901035947 61 311 2.0 4.0 0.00 0.14 0.14 87 1023.9
20260901035848 61 311 2.0 4.0 0.00 0.14 0.14 87 1023.9
20260901035826 61 311 2.0 4.0 0.00 0.14 0.14 87 1023.8
20260901035754 61 311 2.0 4.0 0.00 0.14 0.14 87 1023.8
20260901035542 61 311 2.0 4.0 0.01 0.14 0.14 87 1023.9
20260901035442 61 311 2.0 4.0 0.01 0.14 0.14 87 1024.1
20260901035321 61 311 2.0 4.0 0.01 0.14 0.14 87 1024.1
20260901035241 61 269 2.0 4.0 0.02 0.14 0.14 87 1024.2
20260901035141 61 269 2.0 4.0 0.02 0.14 0.14 87 1024.3
20260901035038 61 277 2.0 4.0 0.02 0.14 0.14 87 1024.4
20260901034938 61 242 2.0 7.0 0.03 0.14 0.14 87 1024.4
20260901034838 61 242 3.0 9.0 0.03 0.14 0.14 87 1024.4
20260901034815 61 16 3.0 9.0 0.03 0.14 0.14 87 1024.4
20260901034742 61 16 3.0 9.0 0.03 0.14 0.14 87 1024.3
20260901034535 61 16 4.0 9.0 0.04 0.14 0.14 87 1023.9
20260901034433 61 16 4.0 9.0 0.04 0.14 0.14 87 1023.7
20260901034309 61 16 4.0 9.0 0.04 0.14 0.14 87 1023.6
20260901034232 61 16 4.0 9.0 0.05 0.14 0.14 87 1023.4
20260901034133 61 13 5.0 9.0 0.05 0.14 0.14 87 1023.4
20260901034016 61 344 5.0 9.0 0.06 0.14 0.14 87 1023.5
20260901033724 62 0 4.0 8.0 0.06 0.14 0.14 87 1023.7
20260901033623 62 348 4.0 8.0 0.07 0.14 0.14 87 1023.8
20260901033525 62 5 4.0 8.0 0.08 0.14 0.14 87 1023.7
20260901033317 62 339 4.0 8.0 0.08 0.14 0.14 87 1023.8
20260901033257 62 326 4.0 8.0 0.08 0.14 0.14 87 1023.8
20260901033224 62 333 4.0 8.0 0.08 0.14 0.14 87 1023.9
20260901033015 62 335 4.0 8.0 0.08 0.14 0.14 87 1024.2
20260901032923 62 316 4.0 8.0 0.09 0.14 0.14 86 1024.2
20260901032750 62 319 4.0 8.0 0.09 0.14 0.14 86 1024.2
20260901032719 62 319 4.0 9.0 0.09 0.14 0.14 86 1024.2
20260901032406 62 319 5.0 9.0 0.10 0.14 0.14 86 1024.1
20260901032306 62 309 4.0 9.0 0.10 0.14 0.14 86 1024.1
20260901032245 62 306 4.0 9.0 0.10 0.14 0.14 86 1024.1
20260901032205 62 306 4.0 9.0 0.10 0.14 0.14 86 1024.1
20260901032107 62 300 4.0 9.0 0.10 0.14 0.14 86 1023.9
20260901031859 62 355 3.0 9.0 0.10 0.14 0.14 86 1023.7
20260901031845 62 355 2.0 9.0 0.11 0.14 0.14 86 1023.8
20260901031700 62 5 2.0 8.0 0.11 0.14 0.14 86 1023.9
20260901031559 62 0 1.0 8.0 0.11 0.14 0.14 86 1024.1
20260901031503 62 0 1.0 8.0 0.11 0.14 0.14 86 1024.2
20260901031255 62 355 0.0 4.0 0.11 0.14 0.14 85 1024.4
20260901031233 62 150 0.0 0.0 0.11 0.14 0.14 85 1024.5
20260901031155 62 150 0.0 0.0 0.11 0.14 0.14 85 1024.5
20260901031101 62 150 0.0 0.0 0.12 0.14 0.14 85 1024.5
20260901030851 62 150 0.0 0.0 0.12 0.14 0.14 84 1024.7
20260901030834 62 150 0.0 0.0 0.12 0.14 0.14 84 1024.7
20260901030649 62 150 0.0 0.0 0.13 0.14 0.14 84 1024.8
20260901030552 62 150 0.0 1.0 0.13 0.14 0.14 83 1024.8
20260901030342 62 150 0.0 2.0 0.13 0.14 0.14 83 1024.9
20260901030221 62 150 0.0 2.0 0.13 0.14 0.14 83 1024.9
20260901030143 62 150 0.0 2.0 0.13 0.14 0.14 83 1024.9
20260901030041 62 150 0.0 2.0 0.13 0.14 0.14 82 1025.0
20260901025938 63 150 1.0 2.0 0.13 0.14 0.14 82 1025.1
20260901025842 63 150 1.0 5.0 0.13 0.14 0.14 81 1025.1
20260901025714 63 150 1.0 5.0 0.13 0.14 0.14 81 1025.1
20260901025635 63 150 2.0 5.0 0.13 0.14 0.14 81 1025.1
20260901025542 63 150 2.0 5.0 0.12 0.13 0.13 81 1025.2
20260901025333 63 150 2.0 5.0 0.12 0.13 0.13 80 1025.5
20260901025233 63 150 3.0 5.0 0.11 0.12 0.13 80 1025.5
20260901025209 63 150 3.0 5.0 0.11 0.12 0.12 80 1025.5
20260901025132 63 150 3.0 5.0 0.11 0.12 0.12 80 1025.5
20260901025037 63 150 3.0 5.0 0.11 0.12 0.12 80 1025.6
20260901024835 64 160 3.0 6.0 0.10 0.11 0.11 79 1025.6
20260901024703 64 160 3.0 6.0 0.09 0.10 0.11 79 1025.6
20260901024630 64 166 3.0 6.0 0.09 0.10 0.11 79 1025.6
20260901024428 64 167 3.0 6.0 0.09 0.10 0.10 78 1025.5
20260901024222 64 167 3.0 6.0 0.08 0.09 0.10 78 1025.5
20260901024157 64 167 3.0 6.0 0.08 0.09 0.09 78 1025.5
20260901024120 64 192 3.0 6.0 0.08 0.09 0.09 77 1025.5
20260901024017 64 192 3.0 6.0 0.08 0.09 0.09 77 1025.5
20260901023911 64 186 3.0 6.0 0.07 0.08 0.08 77 1025.5
20260901023811 65 191 4.0 6.0 0.07 0.08 0.08 76 1025.5
20260901023712 65 163 4.0 6.0 0.07 0.08 0.08 76 1025.5
20260901023650 65 186 4.0 6.0 0.07 0.08 0.08 76 1025.5
20260901023612 65 180 4.0 6.0 0.06 0.07 0.07 76 1025.5
20260901023511 65 167 4.0 6.0 0.05 0.06 0.07 76 1025.4
20260901023416 65 167 4.0 6.0 0.05 0.06 0.06 76 1025.4
20260901023218 65 184 4.0 8.0 0.05 0.06 0.06 74 1025.4
20260901023211 65 182 4.0 8.0 0.05 0.06 0.06 74 1025.2
20260901023008 65 182 5.0 10.0 0.04 0.05 0.06 74 1025.2
20260901022800 65 166 5.0 10.0 0.04 0.05 0.05 73 1025.1
20260901022711 66 170 5.0 10.0 0.04 0.05 0.05 72 1025.0
20260901022704 66 171 5.0 10.0 0.04 0.05 0.05 72 1024.9
20260901022459 66 163 5.0 10.0 0.03 0.04 0.05 72 1024.9
20260901022400 66 175 6.0 10.0 0.03 0.04 0.04 71 1024.9
20260901022257 66 163 6.0 11.0 0.03 0.04 0.04 71 1024.9
20260901022156 66 168 6.0 11.0 0.03 0.04 0.04 71 1024.8
20260901022132 66 178 6.0 11.0 0.03 0.04 0.04 71 1024.8
20260901022055 66 174 6.0 11.0 0.03 0.04 0.04 71 1024.8
20260901021956 67 206 6.0 12.0 0.03 0.04 0.04 71 1024.7
20260901021754 67 191 7.0 18.0 0.02 0.03 0.04 70 1024.5
20260901021626 67 188 8.0 18.0 0.02 0.03 0.03 69 1024.3
20260901021547 67 195 8.0 18.0 0.02 0.03 0.03 69 1024.3
20260901021446 67 210 9.0 18.0 0.02 0.03 0.03 68 1024.3
20260901021342 68 200 9.0 28.0 0.02 0.03 0.03 67 1024.2
20260901021249 68 223 9.0 28.0 0.02 0.03 0.03 67 1024.1
20260901021120 69 219 9.0 28.0 0.02 0.03 0.03 66 1023.9
20260901021042 69 189 9.0 28.0 0.01 0.02 0.03 65 1023.9
20260901020941 69 200 9.0 28.0 0.01 0.02 0.02 65 1023.8
20260901020906 69 198 9.0 28.0 0.01 0.02 0.02 64 1023.8
20260901020859 70 173 8.0 28.0 0.01 0.02 0.02 62 1023.7
20260901020329 70 194 6.0 18.0 0.00 0.01 0.01 56 1023.4
20260901020229 70 200 5.0 18.0 0.00 0.01 0.01 56 1023.2
20260901020215 70 176 5.0 13.0 0.00 0.01 0.01 55 1023.2
20260901020029 70 213 5.0 13.0 0.00 0.01 0.01 55 1023.2
20260901015929 70 202 5.0 10.0 0.00 0.01 0.01 54 1023.1
20260901015824 70 217 5.0 11.0 0.00 0.01 0.01 55 1023.1
20260901015723 70 200 5.0 11.0 0.00 0.01 0.01 54 1023.0
20260901015623 70 217 6.0 11.0 0.00 0.01 0.01 54 1023.0
20260901015603 70 234 6.0 11.0 0.00 0.01 0.01 54 1023.0
20260901015524 70 226 6.0 11.0 0.00 0.01 0.01 55 1022.9
20260901015431 70 209 6.0 11.0 0.00 0.01 0.01 54 1022.9
20260901015118 70 271 6.0 11.0 0.00 0.01 0.01 53 1022.8
20260901015056 70 256 6.0 11.0 0.00 0.01 0.01 53 1022.8
20260901015017 70 249 6.0 11.0 0.00 0.01 0.01 54 1022.8
20260901014917 70 304 6.0 11.0 0.00 0.01 0.01 54 1022.6
20260901014821 70 209 6.0 11.0 0.00 0.01 0.01 55 1022.6
20260901014613 70 292 6.0 11.0 0.01 0.01 0.01 55 1022.5
20260901014550 70 262 6.0 11.0 0.01 0.01 0.01 55 1022.5
20260901014513 70 252 6.0 11.0 0.01 0.01 0.01 55 1022.5
20260901014418 70 300 6.0 11.0 0.01 0.01 0.01 55 1022.5
20260901014105 70 317 6.0 11.0 0.01 0.01 0.01 55 1022.6
20260901014045 70 285 6.0 11.0 0.01 0.01 0.01 55 1022.6
20260901014005 70 322 6.0 11.0 0.01 0.01 0.01 55 1022.6
20260901013906 70 288 6.0 11.0 0.01 0.01 0.01 55 1022.6
20260901013804 69 280 6.0 12.0 0.01 0.01 0.01 56 1022.5
20260901013703 70 288 7.0 12.0 0.01 0.01 0.01 56 1022.5
20260901013603 70 286 7.0 12.0 0.01 0.01 0.01 56 1022.5
20260901013539 70 305 7.0 12.0 0.01 0.01 0.01 56 1022.5
20260901013502 70 300 8.0 12.0 0.01 0.01 0.01 57 1022.5
20260901013359 70 296 7.0 13.0 0.01 0.01 0.01 57 1022.5
20260901013256 70 306 7.0 13.0 0.01 0.01 0.01 57 1022.5
20260901013153 70 289 7.0 13.0 0.01 0.01 0.01 56 1022.5
20260901013104 70 325 8.0 13.0 0.01 0.01 0.01 56 1022.4
20260901013058 70 340 8.0 13.0 0.01 0.01 0.01 56 1022.4
20260901012853 70 292 8.0 13.0 0.01 0.01 0.01 56 1022.4
20260901012749 70 329 8.0 13.0 0.01 0.01 0.01 56 1022.4
20260901012743 70 309 8.0 13.0 0.01 0.01 0.01 56 1022.3
20260901012448 70 313 7.0 13.0 0.01 0.01 0.01 56 1022.3
20260901012348 70 316 7.0 13.0 0.01 0.01 0.01 56 1022.3
20260901012142 70 315 7.0 13.0 0.01 0.01 0.01 56 1022.3
20260901012042 70 307 6.0 13.0 0.01 0.01 0.01 55 1022.3
20260901012029 70 316 6.0 13.0 0.01 0.01 0.01 55 1022.3
20260901011942 70 310 6.0 13.0 0.01 0.01 0.01 55 1022.3
20260901011841 70 321 6.0 10.0 0.01 0.01 0.01 55 1022.3
20260901011735 70 298 6.0 10.0 0.01 0.01 0.01 55 1022.3
20260901011642 70 14 6.0 10.0 0.01 0.01 0.01 56 1022.3
20260901011636 70 343 6.0 10.0 0.01 0.01 0.01 56 1022.4
20260901011435 70 344 6.0 10.0 0.01 0.01 0.01 58 1022.4
20260901011335 70 338 6.0 10.0 0.01 0.01 0.01 57 1022.5
20260901011232 70 315 6.0 10.0 0.01 0.01 0.01 58 1022.5
20260901011143 70 351 6.0 10.0 0.01 0.01 0.01 58 1022.5
20260901011136 70 336 7.0 12.0 0.01 0.01 0.01 58 1022.6
20260901010931 69 333 7.0 14.0 0.01 0.01 0.01 56 1022.6
20260901010829 69 308 7.0 14.0 0.01 0.01 0.01 57 1022.6
20260901010730 69 333 7.0 14.0 0.01 0.01 0.01 61 1022.8
20260901010529 69 291 8.0 15.0 0.01 0.01 0.01 60 1022.8
20260901010523 69 294 8.0 15.0 0.01 0.01 0.01 60 1022.8
20260901010423 69 342 8.0 15.0 0.01 0.01 0.01 59 1022.9
20260901010324 69 344 8.0 15.0 0.01 0.01 0.01 59 1022.9
20260901010223 69 302 9.0 16.0 0.01 0.01 0.01 58 1023.0
20260901010122 69 313 9.0 19.0 0.01 0.01 0.01 58 1023.0
20260901010029 69 303 9.0 19.0 0.01 0.01 0.01 59 1023.0
20260901010022 69 311 9.0 19.0 0.01 0.01 0.01 59 1023.0
20260901005921 69 306 9.0 23.0 0.01 0.01 0.01 60 1023.0
20260901005821 69 308 9.0 23.0 0.01 0.01 0.01 61 1023.0
20260901005722 69 333 10.0 23.0 0.01 0.01 0.01 61 1023.0
20260901005619 70 288 10.0 23.0 0.01 0.01 0.01 61 1022.9
20260901005528 70 261 10.0 23.0 0.01 0.01 0.01 61 1022.9
20260901005520 70 295 10.0 23.0 0.01 0.01 0.01 61 1022.9
20260901005427 70 312 10.0 23.0 0.01 0.01 0.01 60 1022.9
20260901005219 71 304 10.0 23.0 0.01 0.01 0.01 58 1022.9
20260901005129 72 308 10.0 23.0 0.01 0.01 0.01 57 1022.9
20260901005122 72 297 10.0 23.0 0.01 0.01 0.01 59 1023.0
20260901004917 73 290 11.0 23.0 0.01 0.01 0.01 58 1022.9
20260901004823 73 261 11.0 23.0 0.01 0.01 0.01 56 1022.9
20260901004615 74 286 12.0 23.0 0.00 0.00 0.00 54 1022.9
20260901004524 75 285 12.0 24.0 0.00 0.00 0.00 52 1022.8
20260901004515 75 290 12.0 24.0 0.00 0.00 0.00 52 1022.8
20260901004422 75 294 13.0 24.0 0.00 0.00 0.00 49 1022.8
20260901004222 75 288 14.0 24.0 0.00 0.00 0.00 45 1022.6
20260901004024 76 293 14.0 24.0 0.00 0.00 0.00 43 1022.5
20260901004011 76 322 14.0 24.0 0.00 0.00 0.00 43 1022.5
20260901003912 76 318 14.0 24.0 0.00 0.00 0.00 42 1022.4
20260901003812 76 308 14.0 24.0 0.00 0.00 0.00 42 1022.4
20260901003711 77 291 13.0 24.0 0.00 0.00 0.00 41 1022.3
20260901003608 77 302 12.0 24.0 0.00 0.00 0.00 41 1022.3
20260901003526 77 318 11.0 24.0 0.00 0.00 0.00 41 1022.3
20260901003510 78 311 11.0 24.0 0.00 0.00 0.00 40 1022.3
20260901003303 78 311 8.0 23.0 0.00 0.00 0.00 38 1022.2
20260901003203 78 284 7.0 22.0 0.00 0.00 0.00 37 1022.0
20260901003103 78 311 7.0 22.0 0.00 0.00 0.00 35 1021.9
20260901003025 78 322 5.0 22.0 0.00 0.00 0.00 35 1022.0
20260901003006 78 326 5.0 22.0 0.00 0.00 0.00 35 1022.0
20260901002759 79 26 3.0 8.0 0.00 0.00 0.00 35 1022.0
20260901002700 79 339 3.0 6.0 0.00 0.00 0.00 35 1021.9
20260901002557 79 5 2.0 6.0 0.00 0.00 0.00 35 1022.0
20260901002524 79 355 2.0 5.0 0.00 0.00 0.00 35 1021.9
20260901002455 79 355 2.0 5.0 0.00 0.00 0.00 34 1021.9
20260901002356 79 0 2.0 5.0 0.00 0.00 0.00 35 1022.0
20260901002255 79 0 2.0 5.0 0.00 0.00 0.00 35 1021.9
20260901002153 79 355 1.0 5.0 0.00 0.00 0.00 34 1022.0
20260901002132 79 340 1.0 3.0 0.00 0.00 0.00 34 1022.0
20260901002001 79 339 1.0 3.0 0.00 0.00 0.00 34 1022.0
20260901001658 79 61 1.0 2.0 0.00 0.00 0.00 34 1021.9
20260901001651 80 61 1.0 3.0 0.00 0.00 0.00 33 1021.9
20260901001337 80 61 2.0 5.0 0.00 0.00 0.00 33 1021.9
20260901001235 80 61 2.0 5.0 0.00 0.00 0.00 34 1021.9
20260901001135 80 61 2.0 5.0 0.00 0.00 0.00 33 1021.9
20260901001025 80 61 2.0 5.0 0.00 0.00 0.00 33 1021.9
20260901000932 80 61 2.0 5.0 0.00 0.00 0.00 32 1021.8
20260901000829 80 61 3.0 5.0 0.00 0.00 0.00 33 1021.8
20260901000729 80 61 3.0 5.0 0.00 0.00 0.00 33 1021.8
20260901000629 80 57 3.0 5.0 0.00 0.00 0.00 33 1021.8
20260901000530 80 64 3.0 5.0 0.00 0.00 0.00 33 1021.8
20260901000321 80 78 3.0 6.0 0.00 0.00 0.00 33 1021.7
20260901000221 80 97 3.0 6.0 0.00 0.00 0.00 32 1021.7
20260901000121 80 59 3.0 6.0 0.00 0.00 0.00 33 1021.8
20260901000021 80 109 3.0 9.0 0.00 0.00 0.00 33 1021.8
20260831235917 81 61 3.0 9.0 0.00 0.00 0.00 33 1021.8
20260831235817 81 120 4.0 9.0 0.00 0.00 0.00 33 1021.8
20260831235722 81 120 4.0 9.0 0.00 0.00 0.00 33 1021.8
20260831235524 81 108 4.0 10.0 0.00 0.00 0.00 33 1021.8
20260831235513 81 108 4.0 10.0 0.00 0.00 0.00 32 1021.8
20260831235414 81 105 5.0 10.0 0.00 0.00 0.00 32 1021.8
20260831235311 81 106 4.0 10.0 0.00 0.00 0.00 32 1021.8
20260831235211 81 128 5.0 10.0 0.00 0.00 0.00 32 1021.8
20260831235112 81 115 4.0 10.0 0.00 0.00 0.00 32 1021.8
20260831235029 81 106 4.0 10.0 0.00 0.00 0.00 32 1021.7
20260831235025 81 132 4.0 10.0 0.00 0.00 0.00 32 1021.7
20260831234716 81 71 3.0 10.0 0.00 0.00 0.00 31 1021.7
20260831234522 81 114 3.0 8.0 0.00 0.00 0.00 31 1021.8
20260831234509 81 59 3.0 8.0 0.00 0.00 0.00 31 1021.8
20260831234409 81 84 2.0 8.0 0.00 0.00 0.00 31 1021.8
20260831234316 81 67 2.0 5.0 0.00 0.00 0.00 31 1021.8
20260831234118 81 78 2.0 4.0 0.00 0.00 0.00 32 1021.8
20260831234112 81 69 2.0 4.0 0.00 0.00 0.00 31 1021.8
20260831233905 81 69 3.0 7.0 0.00 0.00 0.00 32 1021.8
20260831233803 81 69 3.0 7.0 0.00 0.00 0.00 32 1021.8
20260831233703 82 69 3.0 7.0 0.00 0.00 0.00 31 1021.8
20260831233604 82 69 3.0 7.0 0.00 0.00 0.00 31 1021.8
20260831233503 82 69 3.0 7.0 0.00 0.00 0.00 31 1021.8
20260831233403 82 29 4.0 7.0 0.00 0.00 0.00 30 1021.8
20260831233303 82 29 4.0 7.0 0.00 0.00 0.00 31 1021.8
20260831233213 82 67 4.0 7.0 0.00 0.00 0.00 32 1021.8
20260831233206 82 69 4.0 7.0 0.00 0.00 0.00 31 1021.8
20260831232855 82 81 3.0 7.0 0.00 0.00 0.00 31 1021.8
20260831232755 82 15 3.0 7.0 0.00 0.00 0.00 31 1021.8
20260831232649 82 98 3.0 7.0 0.00 0.00 0.00 30 1021.8
20260831232549 82 103 4.0 7.0 0.00 0.00 0.00 30 1021.8
20260831232520 82 81 4.0 8.0 0.00 0.00 0.00 30 1021.8
20260831232449 82 92 4.0 8.0 0.00 0.00 0.00 30 1021.8
20260831232349 82 49 4.0 8.0 0.00 0.00 0.00 30 1021.8
20260831232247 82 79 4.0 8.0 0.00 0.00 0.00 31 1021.8
20260831232141 82 88 5.0 8.0 0.00 0.00 0.00 30 1021.8
20260831232128 82 26 5.0 9.0 0.00 0.00 0.00 30 1021.8
20260831231941 82 46 5.0 10.0 0.00 0.00 0.00 31 1021.8
20260831231842 82 65 5.0 10.0 0.00 0.00 0.00 30 1021.8
20260831231741 82 92 5.0 10.0 0.00 0.00 0.00 30 1021.8
20260831231646 82 63 5.0 10.0 0.00 0.00 0.00 31 1021.8
20260831231521 82 30 4.0 10.0 0.00 0.00 0.00 30 1021.8
20260831231440 82 67 4.0 10.0 0.00 0.00 0.00 29 1021.8
20260831231348 83 107 4.0 10.0 0.00 0.00 0.00 30 1021.8
20260831231127 83 72 3.0 10.0 0.00 0.00 0.00 30 1021.8
20260831230930 83 74 3.0 8.0 0.00 0.00 0.00 31 1021.8
20260831230827 83 91 3.0 8.0 0.00 0.00 0.00 30 1021.8
20260831230727 83 104 3.0 7.0 0.00 0.00 0.00 30 1021.8
20260831230632 83 104 3.0 7.0 0.00 0.00 0.00 32 1021.8
20260831230626 83 104 3.0 7.0 0.00 0.00 0.00 30 1021.8
20260831230419 83 105 3.0 7.0 0.00 0.00 0.00 30 1021.8
20260831230319 83 94 3.0 7.0 0.00 0.00 0.00 30 1021.8
20260831230219 83 82 4.0 7.0 0.00 0.00 0.00 30 1021.8
20260831230115 83 79 3.0 7.0 0.00 0.00 0.00 31 1021.8
20260831230020 83 91 3.0 7.0 0.00 0.00 0.00 30 1021.9
20260831230015 83 98 3.0 6.0 0.00 0.00 0.00 30 1021.9
20260831225915 83 109 3.0 6.0 0.00 0.00 0.00 31 1021.8
20260831225815 83 85 3.0 6.0 0.00 0.00 0.00 30 1021.9
20260831225713 83 107 3.0 6.0 0.00 0.00 0.00 33 1021.9
20260831225607 83 86 3.0 9.0 0.00 0.00 0.00 31 1021.9
20260831225521 83 51 4.0 9.0 0.00 0.00 0.00 31 1021.9
20260831225507 83 48 4.0 9.0 0.00 0.00 0.00 31 1021.9
20260831225412 83 46 4.0 9.0 0.00 0.00 0.00 32 1022.0
20260831225204 83 40 4.0 9.0 0.00 0.00 0.00 34 1022.0
20260831225101 82 101 4.0 9.0 0.00 0.00 0.00 31 1021.9
20260831225018 82 78 4.0 9.0 0.00 0.00 0.00 31 1022.0
20260831225001 82 86 4.0 9.0 0.00 0.00 0.00 33 1022.0
20260831224901 82 317 5.0 9.0 0.00 0.00 0.00 32 1022.0
20260831224759 82 41 5.0 9.0 0.00 0.00 0.00 32 1022.0
20260831224657 82 49 5.0 9.0 0.00 0.00 0.00 31 1022.2
20260831224553 82 54 5.0 9.0 0.00 0.00 0.00 31 1022.0
20260831224514 82 10 4.0 9.0 0.00 0.00 0.00 31 1022.2
20260831224451 82 46 4.0 9.0 0.00 0.00 0.00 31 1022.2
20260831224349 83 17 4.0 9.0 0.00 0.00 0.00 31 1022.2
20260831224250 83 53 4.0 9.0 0.00 0.00 0.00 30 1022.2
20260831224149 83 59 5.0 9.0 0.00 0.00 0.00 30 1022.2
20260831224045 83 16 5.0 9.0 0.00 0.00 0.00 31 1022.2
20260831224015 83 34 4.0 9.0 0.00 0.00 0.00 31 1022.2
20260831223946 83 25 4.0 9.0 0.00 0.00 0.00 31 1022.2
20260831223845 83 31 4.0 9.0 0.00 0.00 0.00 32 1022.3
20260831223745 83 332 4.0 9.0 0.00 0.00 0.00 32 1022.2
20260831223643 83 51 4.0 9.0 0.00 0.00 0.00 31 1022.2
20260831223539 83 64 4.0 9.0 0.00 0.00 0.00 32 1022.2
20260831223514 83 46 4.0 9.0 0.00 0.00 0.00 32 1022.2
20260831223440 83 44 5.0 9.0 0.00 0.00 0.00 33 1022.3
20260831223339 83 74 4.0 9.0 0.00 0.00 0.00 31 1022.3
20260831223239 83 42 4.0 9.0 0.00 0.00 0.00 33 1022.3
20260831223139 83 49 4.0 10.0 0.00 0.00 0.00 32 1022.3
20260831223040 83 314 4.0 10.0 0.00 0.00 0.00 33 1022.3
20260831223013 83 32 4.0 10.0 0.00 0.00 0.00 33 1022.3
20260831222940 83 19 4.0 10.0 0.00 0.00 0.00 32 1022.2
20260831222839 83 81 4.0 10.0 0.00 0.00 0.00 31 1022.3
20260831222739 83 57 4.0 10.0 0.00 0.00 0.00 31 1022.3
20260831222639 83 59 4.0 10.0 0.00 0.00 0.00 31 1022.3
20260831222539 83 67 3.0 10.0 0.00 0.00 0.00 33 1022.3
20260831222513 83 36 3.0 10.0 0.00 0.00 0.00 31 1022.3
20260831222439 83 35 3.0 10.0 0.00 0.00 0.00 31 1022.3
20260831222335 83 55 3.0 10.0 0.00 0.00 0.00 31 1022.3
20260831222241 83 79 3.0 10.0 0.00 0.00 0.00 32 1022.3
20260831222036 83 355 3.0 6.0 0.00 0.00 0.00 34 1022.3
20260831222013 83 0 3.0 6.0 0.00 0.00 0.00 34 1022.3
20260831221935 83 15 3.0 6.0 0.00 0.00 0.00 31 1022.3
20260831221835 82 81 3.0 7.0 0.00 0.00 0.00 32 1022.4
20260831221735 82 76 3.0 7.0 0.00 0.00 0.00 35 1022.4
20260831221636 82 57 3.0 7.0 0.00 0.00 0.00 32 1022.4
20260831221533 82 57 3.0 7.0 0.00 0.00 0.00 32 1022.4
20260831221513 82 57 3.0 7.0 0.00 0.00 0.00 33 1022.4
20260831221433 82 57 3.0 7.0 0.00 0.00 0.00 33 1022.4
20260831221334 82 99 3.0 7.0 0.00 0.00 0.00 32 1022.4
20260831221234 82 70 3.0 7.0 0.00 0.00 0.00 32 1022.4
20260831221127 82 104 3.0 8.0 0.00 0.00 0.00 32 1022.4
20260831221037 82 74 3.0 8.0 0.00 0.00 0.00 31 1022.5
20260831221031 82 58 3.0 8.0 0.00 0.00 0.00 31 1022.5
20260831220827 82 117 3.0 8.0 0.00 0.00 0.00 32 1022.4
20260831220733 82 119 3.0 8.0 0.00 0.00 0.00 31 1022.4
20260831220727 82 101 3.0 8.0 0.00 0.00 0.00 32 1022.4
20260831220433 82 101 3.0 8.0 0.00 0.00 0.00 34 1022.5
20260831220234 82 37 3.0 8.0 0.00 0.00 0.00 32 1022.5
20260831220027 82 72 3.0 7.0 0.00 0.00 0.00 32 1022.4
20260831220013 82 57 3.0 7.0 0.00 0.00 0.00 32 1022.4
20260831215923 82 49 3.0 8.0 0.00 0.00 0.00 31 1022.4
20260831215830 82 99 4.0 9.0 0.00 0.00 0.00 32 1022.4
20260831215623 82 160 4.0 10.0 0.00 0.00 0.00 33 1022.4
20260831215512 82 170 5.0 10.0 0.00 0.00 0.00 31 1022.4
20260831215423 82 74 5.0 10.0 0.00 0.00 0.00 32 1022.4
20260831215323 82 77 5.0 10.0 0.00 0.00 0.00 34 1022.4
20260831215223 82 59 5.0 10.0 0.00 0.00 0.00 32 1022.3
20260831215140 82 155 6.0 10.0 0.00 0.00 0.00 32 1022.4
20260831215026 82 140 6.0 10.0 0.00 0.00 0.00 31 1022.4
20260831214820 82 71 5.0 10.0 0.00 0.00 0.00 32 1022.4
20260831214717 82 57 5.0 10.0 0.00 0.00 0.00 33 1022.4
20260831214617 82 70 4.0 10.0 0.00 0.00 0.00 31 1022.3
20260831214519 82 96 4.0 10.0 0.00 0.00 0.00 33 1022.4
20260831214513 82 73 4.0 10.0 0.00 0.00 0.00 33 1022.4
20260831214417 82 17 5.0 10.0 0.00 0.00 0.00 31 1022.4
20260831214318 82 74 4.0 10.0 0.00 0.00 0.00 31 1022.5
20260831214217 82 76 4.0 10.0 0.00 0.00 0.00 31 1022.5
20260831214117 82 81 4.0 10.0 0.00 0.00 0.00 31 1022.4
20260831214019 82 116 3.0 8.0 0.00 0.00 0.00 32 1022.5
20260831214013 82 113 3.0 8.0 0.00 0.00 0.00 32 1022.5
20260831213916 82 61 3.0 8.0 0.00 0.00 0.00 30 1022.5
20260831213817 82 92 4.0 8.0 0.00 0.00 0.00 31 1022.5
20260831213715 83 94 3.0 8.0 0.00 0.00 0.00 31 1022.5
20260831213622 83 103 4.0 8.0 0.00 0.00 0.00 30 1022.5
20260831213511 83 80 4.0 9.0 0.00 0.00 0.00 31 1022.6
20260831213411 83 87 4.0 9.0 0.00 0.00 0.00 31 1022.6
20260831213311 83 88 4.0 9.0 0.00 0.00 0.00 32 1022.6
20260831213211 83 127 4.0 9.0 0.00 0.00 0.00 32 1022.6
20260831213111 82 67 4.0 9.0 0.00 0.00 0.00 31 1022.6
20260831213011 82 136 4.0 9.0 0.00 0.00 0.00 31 1022.6
20260831212911 82 136 4.0 9.0 0.00 0.00 0.00 33 1022.8
20260831212811 82 146 4.0 9.0 0.00 0.00 0.00 31 1022.8
20260831212711 82 117 4.0 9.0 0.00 0.00 0.00 30 1022.8
20260831212611 82 136 4.0 8.0 0.00 0.00 0.00 31 1022.8
20260831212515 82 117 4.0 7.0 0.00 0.00 0.00 31 1022.8
20260831212511 82 102 4.0 7.0 0.00 0.00 0.00 31 1022.8
20260831212418 82 49 4.0 7.0 0.00 0.00 0.00 31 1022.9
20260831212211 82 55 3.0 7.0 0.00 0.00 0.00 32 1022.8
20260831212111 82 86 3.0 7.0 0.00 0.00 0.00 32 1022.9
20260831212015 82 142 3.0 7.0 0.00 0.00 0.00 33 1022.9
20260831212011 82 171 3.0 7.0 0.00 0.00 0.00 33 1022.9
20260831211911 82 140 3.0 7.0 0.00 0.00 0.00 34 1022.9
20260831211811 82 162 2.0 7.0 0.00 0.00 0.00 34 1022.9
20260831211711 82 176 2.0 7.0 0.00 0.00 0.00 33 1023.0
20260831211619 82 127 2.0 7.0 0.00 0.00 0.00 33 1022.9
20260831211508 81 97 2.0 6.0 0.00 0.00 0.00 34 1023.0
20260831211414 81 67 2.0 6.0 0.00 0.00 0.00 33 1023.0
20260831211208 81 67 3.0 8.0 0.00 0.00 0.00 34 1023.0
20260831211106 81 67 4.0 8.0 0.00 0.00 0.00 31 1023.0
20260831211007 81 67 4.0 8.0 0.00 0.00 0.00 33 1023.0
20260831210914 81 67 4.0 8.0 0.00 0.00 0.00 31 1023.0
20260831210714 81 67 4.0 8.0 0.00 0.00 0.00 33 1023.0
20260831210512 81 31 4.0 8.0 0.00 0.00 0.00 34 1023.0
20260831210508 81 38 4.0 8.0 0.00 0.00 0.00 34 1023.0
20260831210407 81 65 4.0 8.0 0.00 0.00 0.00 33 1023.0
20260831210307 81 55 4.0 8.0 0.00 0.00 0.00 32 1023.0
20260831210207 81 80 4.0 8.0 0.00 0.00 0.00 33 1023.1
20260831210118 81 40 3.0 8.0 0.00 0.00 0.00 33 1023.1
20260831210111 81 75 3.0 8.0 0.00 0.00 0.00 33 1023.1
20260831205907 81 142 3.0 8.0 0.00 0.00 0.00 34 1023.1
20260831205810 81 134 3.0 8.0 0.00 0.00 0.00 33 1023.0
20260831205603 81 88 3.0 8.0 0.00 0.00 0.00 35 1023.1
20260831205508 81 118 3.0 8.0 0.00 0.00 0.00 33 1023.1
20260831205503 81 139 3.0 8.0 0.00 0.00 0.00 33 1023.1
20260831205410 81 84 3.0 8.0 0.00 0.00 0.00 34 1023.1
20260831205203 81 42 4.0 9.0 0.00 0.00 0.00 33 1023.1
20260831205103 81 42 4.0 9.0 0.00 0.00 0.00 33 1023.1
20260831205003 81 72 5.0 9.0 0.00 0.00 0.00 34 1023.1
20260831204911 81 61 5.0 9.0 0.00 0.00 0.00 33 1023.1
20260831204703 81 34 4.0 9.0 0.00 0.00 0.00 34 1023.1
20260831204614 81 28 5.0 9.0 0.00 0.00 0.00 33 1023.2
20260831204608 81 28 5.0 9.0 0.00 0.00 0.00 34 1023.2
20260831204403 81 61 5.0 9.0 0.00 0.01 0.00 33 1023.4
20260831204310 81 108 5.0 9.0 0.00 0.01 0.00 34 1023.2
20260831204114 81 119 4.0 9.0 0.00 0.01 0.00 34 1023.2
20260831204107 81 117 4.0 8.0 0.00 0.01 0.00 33 1023.4
20260831203903 81 108 4.0 8.0 0.00 0.02 0.00 33 1023.5
20260831203759 81 61 4.0 8.0 0.00 0.02 0.00 34 1023.4
20260831203659 81 91 4.0 10.0 0.00 0.02 0.00 33 1023.5
20260831203559 81 90 4.0 10.0 0.00 0.02 0.00 33 1023.5
20260831203508 81 47 4.0 10.0 0.00 0.02 0.00 32 1023.5
20260831203459 81 112 4.0 10.0 0.00 0.02 0.00 32 1023.5
20260831203359 81 93 4.0 10.0 0.00 0.02 0.00 35 1023.5
20260831203259 81 129 4.0 10.0 0.00 0.02 0.00 35 1023.5
20260831203200 81 105 4.0 10.0 0.00 0.02 0.00 33 1023.5
20260831203100 82 90 4.0 10.0 0.00 0.02 0.00 32 1023.6
20260831203009 82 83 4.0 10.0 0.00 0.02 0.00 33 1023.6
20260831202959 82 105 4.0 10.0 0.00 0.02 0.00 33 1023.6
20260831202859 82 94 4.0 10.0 0.00 0.02 0.00 33 1023.6
20260831202759 82 79 3.0 10.0 0.00 0.02 0.00 32 1023.6
20260831202659 82 103 3.0 9.0 0.00 0.02 0.00 32 1023.6
20260831202600 82 121 3.0 9.0 0.00 0.02 0.00 35 1023.7
20260831202509 81 168 3.0 9.0 0.00 0.02 0.00 35 1023.7
20260831202500 81 168 3.0 9.0 0.00 0.02 0.00 33 1023.7
20260831202413 81 82 3.0 9.0 0.00 0.02 0.00 34 1023.7
20260831202059 81 144 3.0 9.0 0.00 0.02 0.00 34 1023.7
20260831202005 81 141 3.0 9.0 0.00 0.02 0.00 35 1023.8
20260831202000 81 79 3.0 9.0 0.00 0.02 0.00 33 1023.8
20260831201856 81 92 3.0 9.0 0.00 0.02 0.00 32 1023.8
20260831201802 81 106 3.0 9.0 0.00 0.02 0.00 33 1023.8
20260831201555 81 117 3.0 7.0 0.00 0.02 0.00 33 1023.8
20260831201504 82 117 3.0 9.0 0.00 0.02 0.00 36 1023.8
20260831201455 81 117 3.0 9.0 0.00 0.02 0.00 36 1023.8
20260831201355 81 117 3.0 9.0 0.00 0.02 0.00 33 1023.8
20260831201255 81 118 3.0 9.0 0.00 0.02 0.00 33 1023.8
20260831201153 81 117 3.0 9.0 0.00 0.02 0.00 32 1023.8
20260831201053 81 127 3.0 9.0 0.00 0.02 0.00 33 1023.9
20260831201005 81 164 2.0 9.0 0.00 0.02 0.00 33 1023.9
20260831201000 81 164 2.0 9.0 0.00 0.02 0.00 33 1023.9
20260831200753 81 164 2.0 9.0 0.00 0.02 0.00 34 1023.9
20260831200654 81 148 2.0 9.0 0.00 0.02 0.00 34 1023.8
20260831200502 81 125 2.0 9.0 0.00 0.02 0.00 34 1023.8
20260831200454 81 80 2.0 9.0 0.00 0.02 0.00 34 1023.8
20260831200246 81 34 2.0 6.0 0.00 0.02 0.00 35 1023.9
20260831200141 81 10 2.0 6.0 0.00 0.02 0.00 34 1023.9
20260831200052 81 134 2.0 6.0 0.00 0.02 0.00 35 1023.9
20260831200046 81 134 2.0 6.0 0.00 0.02 0.00 34 1023.9
20260831195839 81 134 2.0 6.0 0.00 0.02 0.00 36 1023.9
20260831195739 81 134 2.0 6.0 0.00 0.02 0.00 36 1023.9
20260831195635 80 134 3.0 6.0 0.00 0.02 0.00 38 1023.9
20260831195533 80 128 3.0 6.0 0.00 0.02 0.00 35 1023.9
20260831195502 80 126 3.0 6.0 0.00 0.02 0.00 36 1023.9
20260831195433 80 85 3.0 6.0 0.00 0.02 0.00 36 1023.9
20260831195333 80 130 3.0 6.0 0.00 0.02 0.00 34 1023.9
20260831195241 80 99 3.0 6.0 0.00 0.02 0.00 34 1023.9
20260831194958 80 63 3.0 8.0 0.00 0.02 0.00 34 1023.9
20260831194925 80 63 3.0 8.0 0.00 0.02 0.00 34 1023.9
20260831194825 80 105 3.0 8.0 0.00 0.02 0.00 36 1024.1
20260831194724 80 78 3.0 8.0 0.00 0.02 0.00 34 1024.1
20260831194621 80 98 3.0 8.0 0.00 0.02 0.00 33 1023.9
20260831194530 80 65 3.0 8.0 0.00 0.02 0.00 33 1024.1
20260831194523 80 65 3.0 8.0 0.00 0.02 0.00 33 1024.1
20260831194328 80 104 3.0 8.0 0.00 0.02 0.00 35 1024.1
20260831194015 80 109 3.0 7.0 0.00 0.02 0.00 34 1024.2
20260831193958 80 123 3.0 7.0 0.00 0.02 0.00 34 1024.2
20260831193915 80 157 3.0 7.0 0.00 0.02 0.00 36 1024.1
20260831193813 80 157 2.0 7.0 0.00 0.02 0.00 37 1024.1
20260831193713 80 160 2.0 7.0 0.00 0.02 0.00 37 1024.1
20260831193613 80 109 2.0 7.0 0.00 0.02 0.00 38 1024.2
20260831193513 80 66 2.0 7.0 0.00 0.02 0.00 37 1024.2
20260831193459 80 66 2.0 7.0 0.00 0.02 0.00 37 1024.2
20260831193412 80 66 2.0 7.0 0.00 0.02 0.00 35 1024.2
20260831193313 80 66 2.0 7.0 0.00 0.02 0.00 35 1024.3
20260831193211 80 66 1.0 7.0 0.00 0.02 0.00 35 1024.2
20260831193110 80 76 1.0 7.0 0.00 0.02 0.00 33 1024.2
20260831193010 80 88 1.0 6.0 0.00 0.02 0.00 35 1024.2
20260831192956 80 94 1.0 6.0 0.00 0.02 0.00 35 1024.2
20260831192913 80 62 1.0 4.0 0.00 0.02 0.00 35 1024.2
20260831192705 80 63 1.0 4.0 0.00 0.02 0.00 38 1024.3
20260831192605 80 62 2.0 5.0 0.00 0.02 0.00 35 1024.2
20260831192456 80 62 2.0 7.0 0.00 0.02 0.00 33 1024.3
20260831192359 79 62 2.0 7.0 0.00 0.02 0.00 34 1024.3
20260831192259 79 62 2.0 7.0 0.00 0.02 0.00 36 1024.3
20260831192159 79 63 3.0 7.0 0.00 0.02 0.00 36 1024.3
20260831192059 79 63 3.0 7.0 0.00 0.02 0.00 35 1024.3
20260831191959 79 62 3.0 7.0 0.00 0.02 0.00 34 1024.3
20260831191859 79 63 3.0 7.0 0.00 0.02 0.00 33 1024.3
20260831191759 79 63 3.0 7.0 0.00 0.02 0.00 34 1024.3
20260831191700 80 63 3.0 7.0 0.00 0.02 0.00 34 1024.4
20260831191558 80 76 2.0 7.0 0.00 0.02 0.00 36 1024.4
20260831191458 80 90 2.0 6.0 0.00 0.02 0.00 37 1024.4
20260831191356 80 113 2.0 6.0 0.00 0.02 0.00 36 1024.4
20260831191300 80 113 2.0 6.0 0.00 0.02 0.00 35 1024.3
20260831191103 80 92 1.0 5.0 0.00 0.02 0.00 35 1024.4
20260831190952 79 74 1.0 5.0 0.00 0.02 0.00 35 1024.4
20260831190849 80 74 1.0 5.0 0.00 0.02 0.00 37 1024.4
20260831190747 79 151 2.0 5.0 0.00 0.02 0.00 37 1024.4
20260831190647 79 151 2.0 5.0 0.00 0.02 0.00 36 1024.4
20260831190547 79 151 2.0 5.0 0.00 0.02 0.00 36 1024.5
20260831190446 79 93 2.0 5.0 0.00 0.02 0.00 37 1024.4
20260831190348 79 93 2.0 5.0 0.00 0.02 0.00 37 1024.5
20260831190141 79 121 2.0 5.0 0.00 0.02 0.00 37 1024.5
20260831190051 78 121 2.0 5.0 0.00 0.02 0.00 37 1024.5
20260831185940 78 169 2.0 5.0 0.00 0.02 0.00 36 1024.5
20260831185837 78 188 2.0 5.0 0.00 0.02 0.00 36 1024.7
20260831185735 78 137 2.0 5.0 0.00 0.02 0.00 38 1024.5
20260831185634 78 159 2.0 5.0 0.00 0.02 0.00 37 1024.5
20260831185535 78 159 2.0 5.0 0.00 0.02 0.00 37 1024.5
20260831185434 78 159 2.0 6.0 0.00 0.02 0.00 36 1024.5
20260831185331 78 159 2.0 6.0 0.00 0.02 0.00 36 1024.5
20260831185231 78 159 2.0 6.0 0.00 0.02 0.00 37 1024.5
20260831185131 78 155 2.0 6.0 0.00 0.02 0.00 39 1024.5
20260831185031 78 119 2.0 6.0 0.00 0.02 0.00 38 1024.5
20260831184928 78 118 2.0 6.0 0.00 0.02 0.00 39 1024.5
20260831184825 78 118 2.0 6.0 0.00 0.02 0.00 37 1024.5
20260831184723 78 118 1.0 6.0 0.00 0.02 0.00 37 1024.5
20260831184622 78 144 1.0 6.0 0.00 0.02 0.00 38 1024.5
20260831184523 78 153 1.0 6.0 0.00 0.02 0.00 37 1024.5
20260831184422 78 202 1.0 5.0 0.00 0.02 0.00 37 1024.5
20260831184319 78 202 1.0 5.0 0.00 0.02 0.00 36 1024.5
20260831184224 78 202 1.0 5.0 0.00 0.02 0.00 37 1024.5
20260831184027 78 162 1.0 4.0 0.00 0.02 0.00 37 1024.5
20260831183916 78 162 1.0 4.0 0.00 0.02 0.00 38 1024.5
20260831183813 78 162 1.0 4.0 0.00 0.02 0.00 36 1024.5
20260831183711 78 162 1.0 4.0 0.00 0.02 0.00 38 1024.5
20260831183610 78 162 1.0 4.0 0.00 0.02 0.00 36 1024.5
20260831183511 78 162 1.0 4.0 0.00 0.02 0.00 37 1024.5
20260831183410 78 161 1.0 3.0 0.00 0.02 0.00 36 1024.5
20260831183307 78 150 1.0 3.0 0.00 0.02 0.00 37 1024.5
20260831183205 78 150 1.0 3.0 0.00 0.02 0.00 39 1024.5
20260831183105 78 150 1.0 3.0 0.00 0.02 0.00 37 1024.7
20260831183004 78 150 1.0 3.0 0.00 0.02 0.00 36 1024.7
20260831182905 78 106 1.0 3.0 0.00 0.02 0.00 37 1024.5
20260831182810 78 106 1.0 4.0 0.00 0.02 0.00 35 1024.7
20260831182559 78 112 1.0 4.0 0.00 0.02 0.00 35 1024.7
20260831182509 78 112 1.0 4.0 0.00 0.02 0.00 35 1024.7
20260831182502 78 112 1.0 4.0 0.00 0.02 0.00 35 1024.7
20260831182259 78 112 2.0 4.0 0.00 0.02 0.00 36 1024.5
20260831182053 78 112 1.0 4.0 0.00 0.02 0.00 36 1024.7
20260831182004 78 112 1.0 4.0 0.00 0.02 0.00 35 1024.7
20260831181852 78 106 1.0 4.0 0.00 0.02 0.00 34 1024.7
20260831181752 79 132 1.0 6.0 0.00 0.02 0.00 35 1024.7
20260831181659 79 132 1.0 6.0 0.00 0.02 0.00 38 1024.7
20260831181456 78 132 1.0 6.0 0.00 0.02 0.00 37 1024.7
20260831181345 78 132 1.0 6.0 0.00 0.02 0.00 39 1024.7
20260831181241 78 151 1.0 6.0 0.00 0.02 0.00 37 1024.5
20260831181141 78 122 1.0 6.0 0.00 0.02 0.00 37 1024.7
20260831181041 78 122 2.0 6.0 0.00 0.02 0.00 37 1024.7
20260831180951 78 122 2.0 6.0 0.00 0.02 0.00 37 1024.7
20260831180944 78 118 2.0 6.0 0.00 0.02 0.00 38 1024.7
20260831180738 78 105 2.0 6.0 0.00 0.02 0.00 41 1024.7
20260831180638 78 105 2.0 6.0 0.00 0.02 0.00 39 1024.7
20260831180544 78 125 2.0 6.0 0.00 0.02 0.00 37 1024.8
20260831180336 78 105 2.0 6.0 0.00 0.02 0.00 37 1024.8
20260831180235 77 119 2.0 6.0 0.00 0.02 0.00 39 1024.8
20260831180133 77 119 1.0 6.0 0.00 0.02 0.00 41 1024.8
20260831180032 77 111 1.0 6.0 0.00 0.02 0.00 41 1024.8
20260831175939 77 113 1.0 3.0 0.00 0.02 0.00 43 1024.8
20260831175828 77 113 1.0 3.0 0.00 0.02 0.00 39 1024.8
20260831175725 77 113 1.0 3.0 0.00 0.02 0.00 39 1024.8
20260831175630 77 87 1.0 3.0 0.00 0.02 0.00 38 1024.8
20260831175423 77 87 1.0 4.0 0.00 0.02 0.00 38 1024.8
20260831175322 77 87 1.0 4.0 0.00 0.02 0.00 37 1024.8
20260831175221 77 87 1.0 4.0 0.00 0.02 0.00 40 1024.9
20260831175121 76 87 1.0 4.0 0.00 0.02 0.00 39 1024.8
20260831175020 76 88 1.0 4.0 0.00 0.02 0.00 37 1024.8
20260831174919 76 87 2.0 4.0 0.00 0.02 0.00 38 1024.9
20260831174816 76 87 2.0 4.0 0.00 0.02 0.00 38 1024.9
20260831174710 76 87 2.0 4.0 0.00 0.02 0.00 38 1024.9
20260831174611 76 87 2.0 4.0 0.00 0.02 0.00 39 1024.9
20260831174511 76 89 2.0 4.0 0.00 0.02 0.00 39 1024.9
20260831174422 76 135 2.0 4.0 0.00 0.02 0.00 39 1024.8
20260831174415 76 135 2.0 4.0 0.00 0.02 0.00 39 1024.9
20260831174206 76 135 2.0 4.0 0.00 0.02 0.00 37 1024.9
20260831174112 77 135 2.0 4.0 0.00 0.02 0.00 38 1024.8
20260831173904 77 135 2.0 4.0 0.00 0.02 0.00 38 1024.9
20260831173804 77 135 2.0 4.0 0.00 0.02 0.00 38 1024.8
20260831173701 77 135 2.0 4.0 0.00 0.02 0.00 40 1024.9
20260831173601 77 135 2.0 4.0 0.00 0.02 0.00 40 1024.9
20260831173500 76 82 2.0 4.0 0.00 0.02 0.00 39 1024.9
20260831173410 76 146 2.0 4.0 0.00 0.02 0.00 41 1024.9
20260831173403 76 138 2.0 5.0 0.00 0.02 0.00 39 1025.0
20260831173203 76 110 2.0 5.0 0.00 0.02 0.00 38 1024.9
20260831172956 76 110 2.0 5.0 0.00 0.02 0.00 39 1024.9
20260831172904 76 110 2.0 5.0 0.00 0.02 0.00 40 1025.0
20260831172752 76 110 2.0 5.0 0.00 0.02 0.00 39 1024.9
20260831172649 76 110 2.0 5.0 0.00 0.02 0.00 38 1024.9
20260831172547 76 110 2.0 6.0 0.00 0.02 0.00 39 1025.0
20260831172446 76 109 3.0 6.0 0.00 0.02 0.00 39 1024.9
20260831172348 76 157 3.0 6.0 0.00 0.02 0.00 39 1024.9
20260831172246 76 94 3.0 6.0 0.00 0.02 0.00 40 1025.0
20260831172142 76 136 3.0 6.0 0.00 0.02 0.00 40 1024.9
20260831172043 76 124 3.0 6.0 0.00 0.02 0.00 39 1025.0
20260831171943 76 124 3.0 6.0 0.00 0.02 0.00 37 1024.9
20260831171851 76 121 3.0 6.0 0.00 0.02 0.00 37 1024.9
20260831171844 76 96 3.0 6.0 0.00 0.02 0.00 38 1025.0
20260831171639 76 97 3.0 6.0 0.00 0.02 0.00 37 1024.9
20260831171539 76 111 2.0 6.0 0.00 0.02 0.00 37 1025.0
20260831171438 76 91 2.0 5.0 0.00 0.02 0.00 39 1024.9
20260831171337 76 101 2.0 4.0 0.00 0.02 0.00 39 1025.0
20260831171236 76 103 2.0 4.0 0.00 0.02 0.00 37 1025.0
20260831171028 77 126 2.0 5.0 0.00 0.02 0.00 39 1025.0
20260831170929 77 80 2.0 5.0 0.00 0.02 0.00 37 1025.0
20260831170829 77 80 3.0 5.0 0.00 0.02 0.00 36 1025.0
20260831170728 77 65 3.0 6.0 0.00 0.02 0.00 39 1025.0
20260831170625 77 94 3.0 6.0 0.00 0.02 0.00 39 1025.0
20260831170523 76 107 3.0 6.0 0.00 0.02 0.00 38 1024.9
20260831170423 76 121 3.0 6.0 0.00 0.02 0.00 40 1025.0
20260831170323 76 153 3.0 6.0 0.00 0.02 0.00 41 1025.0
20260831170223 76 153 3.0 6.0 0.00 0.02 0.00 39 1024.9
20260831170118 76 135 3.0 6.0 0.00 0.02 0.00 40 1025.0
20260831170017 76 200 3.0 6.0 0.00 0.02 0.00 39 1025.0
20260831165923 76 140 3.0 7.0 0.00 0.02 0.00 39 1025.0
20260831165716 76 140 3.0 7.0 0.00 0.02 0.00 38 1025.0
20260831165613 76 103 3.0 7.0 0.00 0.02 0.00 40 1025.1
20260831165511 76 129 3.0 7.0 0.00 0.02 0.00 39 1025.0
20260831165429 76 123 3.0 7.0 0.00 0.02 0.00 38 1025.0
20260831165422 76 109 3.0 7.0 0.00 0.02 0.00 41 1025.0
20260831165116 76 169 3.0 7.0 0.00 0.02 0.00 38 1025.0
20260831164922 76 117 3.0 6.0 0.00 0.02 0.00 38 1025.0
20260831164916 76 119 2.0 6.0 0.00 0.02 0.00 37 1025.0
20260831164559 76 122 2.0 6.0 0.00 0.02 0.00 38 1025.0
20260831164459 76 115 2.0 6.0 0.00 0.02 0.00 41 1025.0
20260831164358 76 142 2.0 6.0 0.00 0.02 0.00 39 1025.0
20260831164309 76 140 2.0 6.0 0.00 0.02 0.00 37 1025.0
20260831164302 76 135 2.0 5.0 0.00 0.02 0.00 39 1024.9
20260831164053 76 132 2.0 5.0 0.00 0.02 0.00 41 1024.9
20260831163953 76 151 1.0 4.0 0.00 0.02 0.00 39 1024.9
20260831163852 76 113 1.0 4.0 0.00 0.02 0.00 39 1024.9
20260831163804 76 141 1.0 4.0 0.00 0.02 0.00 39 1024.9
20260831163653 76 113 1.0 4.0 0.00 0.02 0.00 39 1024.9
20260831163558 76 131 1.0 4.0 0.00 0.02 0.00 38 1024.9
20260831163350 76 90 1.0 4.0 0.00 0.02 0.00 38 1024.8
20260831163249 76 74 1.0 3.0 0.00 0.02 0.00 39 1024.9
20260831163146 76 74 1.0 3.0 0.00 0.02 0.00 42 1024.9
20260831163041 76 74 1.0 3.0 0.00 0.02 0.00 39 1024.9
20260831162941 76 74 1.0 3.0 0.00 0.02 0.00 38 1024.8
20260831162841 76 108 1.0 3.0 0.00 0.02 0.00 38 1024.8
20260831162751 76 108 1.0 3.0 0.00 0.02 0.00 38 1024.8
20260831162640 76 108 1.0 3.0 0.00 0.02 0.00 37 1024.8
20260831162534 76 108 1.0 3.0 0.00 0.02 0.00 39 1024.8
20260831162435 76 108 1.0 4.0 0.00 0.02 0.00 42 1024.8
20260831162335 76 140 1.0 4.0 0.00 0.02 0.00 40 1024.8
20260831162234 76 124 1.0 4.0 0.00 0.02 0.00 41 1024.7
20260831162134 76 132 1.0 4.0 0.00 0.02 0.00 41 1024.8
20260831162033 76 94 1.0 4.0 0.00 0.02 0.00 38 1024.7
20260831161933 76 94 1.0 4.0 0.00 0.02 0.00 40 1024.7
20260831161830 76 117 1.0 4.0 0.00 0.02 0.00 39 1024.7
20260831161731 76 117 1.0 4.0 0.00 0.02 0.00 43 1024.5
20260831161628 76 139 2.0 4.0 0.00 0.02 0.00 43 1024.7
20260831161529 76 139 2.0 4.0 0.00 0.02 0.00 43 1024.7
20260831161322 76 158 2.0 4.0 0.00 0.02 0.00 43 1024.7
20260831161233 76 158 2.0 4.0 0.00 0.02 0.00 42 1024.7
20260831161226 76 121 2.0 4.0 0.00 0.02 0.00 41 1024.7
20260831161019 76 121 2.0 4.0 0.00 0.02 0.00 42 1024.7
20260831160916 76 109 2.0 4.0 0.00 0.02 0.00 41 1024.7
20260831160817 76 109 2.0 4.0 0.00 0.02 0.00 39 1024.5
20260831160727 76 106 2.0 4.0 0.00 0.02 0.00 39 1024.7
20260831160616 76 104 2.0 4.0 0.00 0.02 0.00 42 1024.5
20260831160512 76 109 2.0 4.0 0.00 0.02 0.00 42 1024.7
20260831160411 76 109 2.0 4.0 0.00 0.02 0.00 42 1024.5
20260831160310 76 103 1.0 4.0 0.00 0.02 0.00 42 1024.7
20260831160210 76 173 1.0 4.0 0.00 0.02 0.00 44 1024.7
20260831160111 76 126 1.0 4.0 0.00 0.02 0.00 41 1024.5
20260831160007 76 126 1.0 6.0 0.00 0.02 0.00 42 1024.5
20260831155905 76 126 1.0 6.0 0.00 0.02 0.00 45 1024.5
20260831155804 76 169 2.0 6.0 0.00 0.02 0.00 43 1024.5
20260831155705 76 169 1.0 6.0 0.00 0.02 0.00 42 1024.5
20260831155605 75 181 1.0 6.0 0.00 0.02 0.00 43 1024.5
20260831155501 75 181 1.0 6.0 0.00 0.02 0.00 43 1024.5
20260831155358 75 148 1.0 6.0 0.00 0.02 0.00 45 1024.5
20260831155258 75 147 1.0 6.0 0.00 0.02 0.00 43 1024.5
20260831155210 75 148 1.0 6.0 0.00 0.02 0.00 43 1024.4
20260831155202 75 156 1.0 6.0 0.00 0.02 0.00 46 1024.5
20260831154956 75 166 1.0 5.0 0.00 0.02 0.00 43 1024.4
20260831154857 75 149 1.0 3.0 0.00 0.02 0.00 43 1024.4
20260831154756 75 136 1.0 3.0 0.00 0.02 0.00 45 1024.4
20260831154654 75 80 1.0 3.0 0.00 0.02 0.00 45 1024.4
20260831154553 74 78 1.0 3.0 0.00 0.02 0.00 44 1024.5
20260831154453 74 66 1.0 3.0 0.00 0.02 0.00 41 1024.4
20260831154350 74 67 1.0 3.0 0.00 0.02 0.00 41 1024.4
20260831154307 74 98 2.0 3.0 0.00 0.02 0.00 41 1024.4
20260831154301 74 98 1.0 3.0 0.00 0.02 0.00 41 1024.4
20260831153841 74 98 1.0 3.0 0.00 0.02 0.00 43 1024.4
20260831153741 74 98 1.0 3.0 0.00 0.02 0.00 42 1024.4
20260831153641 74 98 1.0 3.0 0.00 0.02 0.00 40 1024.4
20260831153544 74 96 1.0 3.0 0.00 0.02 0.00 42 1024.4
20260831153334 74 99 1.0 3.0 0.00 0.02 0.00 43 1024.4
20260831153252 74 99 1.0 3.0 0.00 0.02 0.00 43 1024.4
20260831153138 74 99 1.0 3.0 0.00 0.02 0.00 42 1024.4
20260831152935 74 99 1.0 3.0 0.00 0.02 0.00 44 1024.4
20260831152729 74 100 1.0 3.0 0.00 0.02 0.00 43 1024.4
20260831152629 74 100 1.0 3.0 0.00 0.02 0.00 41 1024.4
20260831152528 73 99 1.0 3.0 0.00 0.02 0.00 42 1024.4
20260831152430 73 99 0.0 3.0 0.00 0.02 0.00 40 1024.4
20260831152222 73 71 0.0 2.0 0.00 0.02 0.00 40 1024.4
20260831152122 73 71 1.0 3.0 0.00 0.02 0.00 40 1024.4
20260831152022 73 71 1.0 3.0 0.00 0.02 0.00 41 1024.4
20260831151928 73 71 1.0 3.0 0.00 0.02 0.00 43 1024.4
20260831151721 73 71 1.0 3.0 0.00 0.02 0.00 40 1024.4
20260831151618 73 71 1.0 3.0 0.00 0.02 0.00 39 1024.3
20260831151516 73 71 1.0 3.0 0.00 0.02 0.00 40 1024.4
20260831151413 73 71 1.0 3.0 0.00 0.02 0.00 39 1024.3
20260831151310 73 71 1.0 3.0 0.00 0.02 0.00 40 1024.3
20260831151210 73 71 1.0 3.0 0.00 0.02 0.00 46 1024.3
20260831151110 73 71 1.0 3.0 0.00 0.02 0.00 46 1024.3
20260831151018 73 71 1.0 3.0 0.00 0.02 0.00 44 1024.3
20260831150705 72 92 1.0 3.0 0.00 0.02 0.00 43 1024.3
20260831150605 72 67 0.0 3.0 0.00 0.02 0.00 43 1024.3
20260831150512 72 67 0.0 2.0 0.00 0.02 0.00 45 1024.4
20260831150303 72 326 0.0 2.0 0.00 0.02 0.00 42 1024.4
20260831150203 72 326 0.0 2.0 0.00 0.02 0.00 44 1024.4
20260831150109 72 326 0.0 2.0 0.00 0.02 0.00 47 1024.4
20260831145859 71 326 0.0 2.0 0.00 0.02 0.00 47 1024.4
20260831145757 71 326 0.0 2.0 0.00 0.02 0.00 43 1024.4
20260831145656 71 326 0.0 2.0 0.00 0.02 0.00 44 1024.4
20260831145603 71 326 0.0 2.0 0.00 0.02 0.00 47 1024.4
20260831145556 71 326 0.0 3.0 0.00 0.02 0.00 47 1024.4
20260831145348 71 326 0.0 3.0 0.00 0.02 0.00 48 1024.5
20260831145246 71 326 0.0 3.0 0.00 0.02 0.00 45 1024.5
20260831145147 71 326 0.0 3.0 0.00 0.02 0.00 47 1024.4
20260831145047 71 326 0.0 3.0 0.00 0.02 0.00 47 1024.5
20260831144946 70 257 0.0 3.0 0.00 0.02 0.00 49 1024.4
20260831144840 70 257 0.0 3.0 0.00 0.02 0.00 49 1024.5
20260831144740 70 257 0.0 3.0 0.00 0.02 0.00 47 1024.7
20260831144641 70 257 1.0 3.0 0.00 0.02 0.00 47 1024.5
20260831144540 70 257 1.0 3.0 0.00 0.02 0.00 45 1024.5
20260831144440 70 292 0.0 3.0 0.00 0.02 0.00 48 1024.5
20260831144336 70 292 1.0 3.0 0.00 0.02 0.00 47 1024.7
20260831144234 70 292 1.0 3.0 0.00 0.02 0.00 45 1024.5
20260831144135 69 292 1.0 3.0 0.00 0.02 0.00 47 1024.5
20260831144035 69 292 1.0 3.0 0.00 0.02 0.00 48 1024.5
20260831143934 69 292 1.0 3.0 0.00 0.02 0.00 49 1024.5
20260831143828 69 292 1.0 3.0 0.00 0.02 0.00 50 1024.5
20260831143736 69 292 1.0 3.0 0.00 0.02 0.00 50 1024.5
20260831143539 68 247 1.0 4.0 0.00 0.02 0.00 51 1024.5
20260831143428 68 247 1.0 4.0 0.00 0.02 0.00 52 1024.5
20260831143324 68 247 1.0 4.0 0.00 0.02 0.00 52 1024.5
20260831143223 68 247 1.0 4.0 0.00 0.02 0.00 52 1024.5
20260831143123 67 247 1.0 4.0 0.00 0.02 0.00 53 1024.5
20260831143022 67 247 1.0 4.0 0.00 0.02 0.00 53 1024.5
20260831142922 67 247 1.0 4.0 0.00 0.02 0.00 53 1024.4
20260831142819 67 247 1.0 4.0 0.00 0.02 0.00 54 1024.5
20260831142717 67 247 1.0 4.0 0.00 0.02 0.00 54 1024.4
20260831142616 67 260 1.0 4.0 0.00 0.02 0.00 55 1024.5
20260831142517 66 256 1.0 4.0 0.00 0.02 0.00 56 1024.5
20260831142416 66 279 1.0 3.0 0.00 0.02 0.00 57 1024.4
20260831142312 66 233 0.0 3.0 0.00 0.02 0.00 57 1024.4
20260831142211 66 233 0.0 3.0 0.00 0.02 0.00 58 1024.4
20260831142111 66 21 0.0 2.0 0.00 0.02 0.00 58 1024.4
20260831142028 66 21 0.0 2.0 0.00 0.02 0.00 58 1024.4
20260831141917 66 21 0.0 2.0 0.00 0.02 0.00 58 1024.3
20260831141713 65 21 0.0 0.0 0.00 0.02 0.00 59 1024.4
20260831141507 65 21 0.0 0.0 0.00 0.02 0.00 60 1024.3
20260831141405 65 21 0.0 0.0 0.00 0.02 0.00 60 1024.3
20260831141305 65 21 0.0 0.0 0.00 0.02 0.00 60 1024.3
20260831141202 65 21 0.0 0.0 0.00 0.02 0.00 61 1024.3
20260831141108 65 21 0.0 1.0 0.00 0.02 0.00 61 1024.2
20260831140858 65 21 0.0 2.0 0.00 0.02 0.00 61 1024.3
20260831140759 65 21 0.0 2.0 0.00 0.02 0.00 60 1024.2
20260831140553 64 21 0.0 2.0 0.00 0.02 0.00 60 1024.3
20260831140503 64 21 0.0 2.0 0.00 0.02 0.00 60 1024.2
20260831140352 64 21 0.0 2.0 0.00 0.02 0.00 59 1024.2
20260831140252 64 21 0.0 2.0 0.00 0.02 0.00 59 1024.1
20260831140150 64 21 0.0 2.0 0.00 0.02 0.00 60 1024.2
20260831140051 64 21 0.0 2.0 0.00 0.02 0.00 60 1024.2
20260831135949 64 21 0.0 1.0 0.00 0.02 0.00 60 1024.2
20260831135849 64 21 0.0 0.0 0.00 0.02 0.00 60 1024.3
20260831135641 64 21 0.0 1.0 0.00 0.02 0.00 59 1024.2
20260831135540 63 21 0.0 1.0 0.00 0.02 0.00 59 1024.1
20260831135441 63 21 0.0 1.0 0.00 0.02 0.00 59 1024.1
20260831135340 63 21 0.0 1.0 0.00 0.02 0.00 59 1024.2
20260831135237 63 21 0.0 1.0 0.00 0.02 0.00 58 1024.1
20260831135135 63 21 0.0 2.0 0.00 0.02 0.00 59 1023.9
20260831135034 63 21 0.0 2.0 0.00 0.02 0.00 58 1024.1
20260831134934 63 21 0.0 2.0 0.00 0.02 0.00 58 1024.1
20260831134834 63 21 0.0 2.0 0.00 0.02 0.00 58 1023.9
20260831134732 63 21 0.0 3.0 0.00 0.02 0.00 58 1023.9
20260831134632 63 21 0.0 3.0 0.00 0.02 0.00 58 1023.9
20260831134531 62 21 1.0 3.0 0.00 0.02 0.00 58 1023.9
20260831134431 62 21 1.0 3.0 0.00 0.02 0.00 58 1023.8
20260831134328 62 21 1.0 3.0 0.00 0.02 0.00 58 1023.8
20260831134225 62 21 1.0 3.0 0.00 0.02 0.00 58 1023.8
20260831134131 62 21 1.0 3.0 0.00 0.02 0.00 59 1023.8
20260831133925 62 21 1.0 3.0 0.00 0.02 0.00 60 1023.8
20260831133822 62 21 1.0 3.0 0.00 0.02 0.00 60 1023.8
20260831133718 62 21 1.0 2.0 0.00 0.02 0.00 60 1023.8
20260831133617 62 21 1.0 4.0 0.00 0.02 0.00 61 1023.8
20260831133516 62 21 1.0 4.0 0.00 0.02 0.00 59 1023.7
20260831133416 62 21 1.0 4.0 0.00 0.02 0.00 59 1023.8
20260831133317 62 21 1.0 4.0 0.00 0.02 0.00 59 1023.7
20260831133217 62 21 1.0 4.0 0.00 0.02 0.00 60 1023.7
20260831133114 62 21 1.0 4.0 0.00 0.02 0.00 60 1023.7
20260831133014 62 21 1.0 4.0 0.00 0.02 0.00 60 1023.7
20260831132912 62 21 1.0 4.0 0.00 0.02 0.00 61 1023.7
20260831132810 62 16 1.0 4.0 0.00 0.02 0.00 61 1023.7
20260831132707 62 16 0.0 4.0 0.00 0.02 0.00 60 1023.7
20260831132604 62 177 0.0 3.0 0.00 0.02 0.00 60 1023.6
20260831132504 62 176 0.0 1.0 0.00 0.02 0.00 60 1023.6
20260831132405 62 177 0.0 1.0 0.00 0.02 0.00 60 1023.6
20260831132306 62 176 0.0 1.0 0.00 0.02 0.00 60 1023.5
20260831132200 62 177 0.0 1.0 0.00 0.02 0.00 60 1023.6
20260831132105 62 177 0.0 1.0 0.00 0.02 0.00 60 1023.5
20260831131909 62 177 0.0 1.0 0.00 0.02 0.00 60 1023.5
20260831131903 62 176 0.0 1.0 0.00 0.02 0.00 60 1023.5
20260831131723 62 177 0.0 0.0 0.00 0.02 0.00 60 1023.5
20260831131503 61 177 0.0 0.0 0.00 0.02 0.00 61 1023.4
20260831131152 61 177 0.0 0.0 0.00 0.02 0.00 61 1023.4
20260831131051 61 177 0.0 0.0 0.00 0.02 0.00 60 1023.4
20260831130951 61 177 0.0 1.0 0.00 0.02 0.00 60 1023.4
20260831130858 61 177 0.0 1.0 0.00 0.02 0.00 60 1023.2
20260831130747 61 177 0.0 1.0 0.00 0.02 0.00 60 1023.2
20260831130641 61 177 0.0 1.0 0.00 0.02 0.00 60 1023.2
20260831130540 61 177 0.0 1.0 0.00 0.02 0.00 60 1023.4
20260831130441 61 177 0.0 2.0 0.00 0.02 0.00 60 1023.2
20260831130340 61 176 0.0 3.0 0.00 0.02 0.00 60 1023.2
20260831130240 61 177 1.0 4.0 0.00 0.02 0.00 60 1023.2
20260831130136 61 177 1.0 5.0 0.00 0.02 0.00 60 1023.2
20260831130035 61 176 1.0 5.0 0.00 0.02 0.00 60 1023.2
20260831125941 61 176 1.0 5.0 0.00 0.02 0.00 60 1023.2
20260831125734 61 177 1.0 5.0 0.00 0.02 0.00 60 1023.2
20260831125632 61 177 1.0 5.0 0.00 0.02 0.00 60 1023.1
20260831125532 61 176 1.0 5.0 0.00 0.02 0.00 60 1023.1
20260831125433 61 176 1.0 5.0 0.00 0.02 0.00 60 1023.2
20260831125333 60 177 1.0 5.0 0.00 0.02 0.00 60 1023.1
20260831125232 60 177 0.0 5.0 0.00 0.02 0.00 60 1023.1
20260831125225 60 165 0.0 5.0 0.00 0.02 0.00 60 1023.1
20260831125132 60 223 0.0 2.0 0.00 0.02 0.00 59 1023.1
20260831125030 60 223 0.0 1.0 0.00 0.02 0.00 59 1023.0
20260831124929 60 223 0.0 0.0 0.00 0.02 0.00 59 1023.1
20260831124828 60 223 0.0 0.0 0.00 0.02 0.00 59 1023.0
20260831124719 60 223 0.0 0.0 0.00 0.02 0.00 59 1023.0
20260831124626 60 223 0.0 1.0 0.00 0.02 0.00 59 1023.0
20260831124524 60 223 0.0 1.0 0.00 0.02 0.00 59 1023.0
20260831124424 60 223 0.0 2.0 0.00 0.02 0.00 59 1023.1
20260831124322 60 223 0.0 2.0 0.00 0.02 0.00 59 1023.0
20260831124214 60 223 0.0 2.0 0.00 0.02 0.00 59 1023.1
20260831124120 60 223 0.0 2.0 0.00 0.02 0.00 59 1023.0
20260831124019 60 223 0.0 2.0 0.00 0.02 0.00 59 1023.0
20260831123918 60 223 0.0 2.0 0.00 0.02 0.00 58 1023.0
20260831123816 60 223 0.0 2.0 0.00 0.02 0.00 59 1023.0
20260831123709 60 223 0.0 2.0 0.00 0.02 0.00 59 1023.0
20260831123614 60 223 0.0 2.0 0.00 0.02 0.00 58 1023.0
20260831123513 60 223 0.0 2.0 0.00 0.02 0.00 58 1022.9
20260831123412 60 223 0.0 2.0 0.00 0.02 0.00 59 1022.9
20260831123312 60 223 0.0 2.0 0.00 0.02 0.00 59 1022.9
20260831123213 60 223 0.0 2.0 0.00 0.02 0.00 59 1022.9
20260831123112 60 223 0.0 2.0 0.00 0.02 0.00 59 1022.9
20260831123010 60 223 0.0 2.0 0.00 0.02 0.00 58 1023.0
20260831122908 60 223 0.0 2.0 0.00 0.02 0.00 59 1022.9
20260831122808 60 223 1.0 2.0 0.00 0.02 0.00 59 1023.0
20260831122708 60 223 1.0 2.0 0.00 0.02 0.00 58 1023.0
20260831122607 60 223 1.0 3.0 0.00 0.02 0.00 58 1022.9
20260831122505 60 223 1.0 3.0 0.00 0.02 0.00 58 1022.9
20260831122405 60 223 1.0 3.0 0.00 0.02 0.00 58 1023.0
20260831122305 60 223 1.0 3.0 0.00 0.02 0.00 58 1022.9
20260831122208 60 223 1.0 3.0 0.00 0.02 0.00 58 1022.9
20260831122202 60 223 1.0 3.0 0.00 0.02 0.00 58 1022.9
20260831122101 60 223 1.0 3.0 0.00 0.02 0.00 58 1022.9
20260831121959 60 223 1.0 3.0 0.00 0.02 0.00 58 1022.9
20260831121858 60 223 1.0 3.0 0.00 0.02 0.00 58 1022.9
20260831121810 60 223 1.0 3.0 0.00 0.02 0.00 59 1022.9
20260831121804 60 223 2.0 3.0 0.00 0.02 0.00 59 1022.9
20260831121559 60 223 1.0 3.0 0.00 0.02 0.00 59 1022.9
20260831121458 60 223 1.0 3.0 0.00 0.02 0.00 59 1022.9
20260831121358 60 223 1.0 3.0 0.00 0.02 0.00 59 1022.8
20260831121256 60 223 1.0 3.0 0.00 0.02 0.00 59 1022.8
20260831121206 60 223 1.0 3.0 0.00 0.02 0.00 59 1022.8
20260831121156 60 223 1.0 3.0 0.00 0.02 0.00 59 1022.8
20260831121054 60 223 1.0 3.0 0.00 0.02 0.00 60 1022.8
20260831120953 60 223 1.0 3.0 0.00 0.02 0.00 60 1022.8
20260831120849 60 220 1.0 3.0 0.00 0.02 0.00 60 1022.8
20260831120749 60 238 1.0 3.0 0.00 0.02 0.00 60 1022.9
20260831120704 59 26 1.0 3.0 0.00 0.02 0.00 61 1022.8
20260831120648 59 26 1.0 3.0 0.00 0.02 0.00 61 1022.8
20260831120548 59 26 1.0 3.0 0.00 0.02 0.00 61 1022.9
20260831120446 59 26 1.0 3.0 0.00 0.02 0.00 61 1022.8
20260831120341 59 26 1.0 3.0 0.00 0.02 0.00 61 1022.8
20260831120240 60 26 1.0 3.0 0.00 0.02 0.00 61 1022.6
20260831120202 60 26 1.0 3.0 0.00 0.02 0.00 61 1022.6
20260831120140 60 26 1.0 3.0 0.00 0.02 0.00 61 1022.8
20260831120040 60 26 1.0 3.0 0.00 0.02 0.00 61 1022.8
20260831115940 60 26 1.0 3.0 0.00 0.02 0.00 61 1022.8
20260831115840 60 26 1.0 3.0 0.00 0.02 0.00 61 1022.8
20260831115738 60 26 1.0 3.0 0.00 0.02 0.00 61 1022.8
20260831115701 60 26 1.0 2.0 0.00 0.02 0.00 61 1022.8
20260831115638 60 26 1.0 2.0 0.00 0.02 0.00 61 1022.6
20260831115536 60 26 0.0 2.0 0.00 0.02 0.00 61 1022.6
20260831115434 60 26 0.0 2.0 0.00 0.02 0.00 61 1022.6
20260831115339 60 26 0.0 2.0 0.00 0.02 0.00 61 1022.6
20260831115201 60 26 0.0 1.0 0.00 0.02 0.00 61 1022.6
20260831115132 60 26 0.0 1.0 0.00 0.02 0.00 61 1022.6
20260831115030 60 26 0.0 0.0 0.00 0.02 0.00 61 1022.6
20260831114931 60 26 0.0 1.0 0.00 0.02 0.00 61 1022.6
20260831114724 60 26 0.0 1.0 0.00 0.02 0.00 61 1022.6
20260831114700 60 26 0.0 1.0 0.00 0.02 0.00 61 1022.6
20260831114624 60 26 0.0 1.0 0.00 0.02 0.00 61 1022.6
20260831114524 60 26 0.0 1.0 0.00 0.02 0.00 61 1022.6
20260831114431 60 26 0.0 1.0 0.00 0.02 0.00 61 1022.6
20260831114225 60 26 0.0 1.0 0.00 0.02 0.00 61 1022.6
20260831114158 60 26 0.0 1.0 0.00 0.02 0.00 61 1022.6
20260831114125 60 26 0.0 1.0 0.00 0.02 0.00 60 1022.6
20260831114034 60 26 0.0 2.0 0.00 0.02 0.00 60 1022.8
20260831113719 60 26 0.0 3.0 0.00 0.02 0.00 61 1022.8
20260831113656 60 26 0.0 3.0 0.00 0.02 0.00 61 1022.8
20260831113618 60 26 0.0 3.0 0.00 0.02 0.00 61 1022.8
20260831113518 60 26 0.0 3.0 0.00 0.02 0.00 61 1022.8
20260831113418 60 26 1.0 3.0 0.00 0.02 0.00 61 1022.8
20260831113318 60 26 1.0 4.0 0.00 0.02 0.00 61 1022.8
20260831113218 60 26 1.0 4.0 0.00 0.02 0.00 61 1022.8
20260831113156 60 26 1.0 4.0 0.00 0.02 0.00 62 1022.8
20260831113119 60 26 1.0 4.0 0.00 0.02 0.00 62 1022.8
20260831113019 60 26 0.0 4.0 0.00 0.02 0.00 61 1022.8
20260831112918 60 26 0.0 4.0 0.00 0.02 0.00 61 1022.8
20260831112818 60 26 1.0 4.0 0.00 0.02 0.00 61 1022.8
20260831112718 60 26 1.0 4.0 0.00 0.02 0.00 61 1022.6
20260831112655 60 26 1.0 4.0 0.00 0.02 0.00 61 1022.6
20260831112614 60 26 1.0 4.0 0.00 0.02 0.00 61 1022.6
20260831112512 60 26 1.0 4.0 0.00 0.02 0.00 61 1022.6
20260831112412 60 26 1.0 4.0 0.00 0.02 0.00 61 1022.6
20260831112312 60 26 1.0 4.0 0.00 0.02 0.00 61 1022.5
20260831112301 60 264 1.0 3.0 0.00 0.02 0.00 61 1022.5
20260831112108 60 264 2.0 3.0 0.00 0.02 0.00 61 1022.5
20260831112007 60 264 2.0 3.0 0.00 0.02 0.00 60 1022.5
20260831111906 60 264 2.0 3.0 0.00 0.02 0.00 60 1022.5
20260831111804 60 264 2.0 3.0 0.00 0.02 0.00 60 1022.5
20260831111704 60 264 2.0 3.0 0.00 0.02 0.00 60 1022.5
20260831111654 60 264 2.0 3.0 0.00 0.02 0.00 60 1022.5
20260831111604 60 264 2.0 3.0 0.00 0.02 0.00 60 1022.5
20260831111503 60 264 1.0 3.0 0.00 0.02 0.00 60 1022.5
20260831111426 59 264 1.0 3.0 0.00 0.02 0.00 60 1022.5
20260831111205 59 264 1.0 2.0 0.00 0.02 0.00 60 1022.5
20260831111000 59 264 1.0 3.0 0.00 0.02 0.00 60 1022.4
20260831110900 59 264 1.0 3.0 0.00 0.02 0.00 60 1022.5
20260831110800 59 264 1.0 3.0 0.00 0.02 0.00 60 1022.5
20260831110654 59 264 1.0 3.0 0.00 0.02 0.00 60 1022.5
20260831110600 59 264 1.0 3.0 0.00 0.02 0.00 60 1022.5
20260831110501 59 264 1.0 3.0 0.00 0.02 0.00 60 1022.5
20260831110400 59 264 1.0 3.0 0.00 0.02 0.00 60 1022.5
20260831110300 59 264 1.0 3.0 0.00 0.02 0.00 60 1022.6
20260831110153 59 264 1.0 3.0 0.00 0.02 0.00 60 1022.5
20260831110058 59 264 1.0 3.0 0.00 0.02 0.00 60 1022.6
20260831105958 59 264 1.0 3.0 0.00 0.02 0.00 60 1022.6
20260831105858 59 264 0.0 2.0 0.00 0.02 0.00 60 1022.6
20260831105807 59 264 0.0 2.0 0.00 0.02 0.00 60 1022.6
20260831105800 59 264 0.0 2.0 0.00 0.02 0.00 60 1022.5
20260831105556 59 264 0.0 2.0 0.00 0.02 0.00 61 1022.5
20260831105510 59 264 1.0 3.0 0.00 0.02 0.00 61 1022.5
20260831105152 59 264 1.0 3.0 0.00 0.02 0.00 61 1022.5
20260831105052 59 264 1.0 3.0 0.00 0.02 0.00 61 1022.5
20260831104952 59 264 1.0 3.0 0.00 0.02 0.00 61 1022.5
20260831104853 59 264 2.0 3.0 0.00 0.02 0.00 61 1022.5
20260831104752 59 264 2.0 3.0 0.00 0.02 0.00 61 1022.5
20260831104652 59 264 2.0 3.0 0.00 0.02 0.00 61 1022.5
20260831104553 59 264 2.0 3.0 0.00 0.02 0.00 61 1022.5
20260831104452 59 264 2.0 3.0 0.00 0.02 0.00 61 1022.4
20260831104353 59 264 2.0 3.0 0.00 0.02 0.00 61 1022.4
20260831104252 59 264 2.0 3.0 0.00 0.02 0.00 62 1022.5
20260831104152 59 264 2.0 3.0 0.00 0.02 0.00 62 1022.5
20260831104052 59 264 1.0 3.0 0.00 0.02 0.00 62 1022.5
20260831103952 59 264 1.0 3.0 0.00 0.02 0.00 62 1022.5
20260831103852 59 264 1.0 3.0 0.00 0.02 0.00 63 1022.4
20260831103752 59 264 1.0 3.0 0.00 0.02 0.00 63 1022.4
20260831103700 59 264 1.0 3.0 0.00 0.02 0.00 63 1022.5
20260831103452 59 264 1.0 3.0 0.00 0.02 0.00 64 1022.4
20260831103352 59 264 1.0 3.0 0.00 0.02 0.00 65 1022.4
20260831103248 59 264 1.0 3.0 0.00 0.02 0.00 65 1022.4
20260831103155 59 264 2.0 3.0 0.00 0.02 0.00 65 1022.4
20260831102955 59 264 2.0 3.0 0.00 0.02 0.00 66 1022.4
20260831102759 59 264 2.0 3.0 0.00 0.02 0.00 67 1022.5
20260831102753 59 264 1.0 3.0 0.00 0.02 0.00 68 1022.4
20260831102548 59 264 1.0 3.0 0.00 0.02 0.00 68 1022.4
20260831102447 59 190 1.0 3.0 0.00 0.02 0.00 68 1022.4
20260831102348 59 190 1.0 3.0 0.00 0.02 0.00 69 1022.4
20260831102246 59 190 1.0 3.0 0.00 0.02 0.00 69 1022.4
20260831102150 60 190 1.0 3.0 0.00 0.02 0.00 69 1022.4
20260831101942 60 190 1.0 3.0 0.00 0.02 0.00 69 1022.4
20260831101842 60 190 1.0 3.0 0.00 0.02 0.00 69 1022.4
20260831101753 60 190 1.0 3.0 0.00 0.02 0.00 68 1022.4
20260831101747 60 190 1.0 4.0 0.00 0.02 0.00 68 1022.4
20260831101542 60 190 2.0 4.0 0.00 0.02 0.00 68 1022.4
20260831101442 60 190 2.0 4.0 0.00 0.02 0.00 68 1022.5
20260831101342 60 190 2.0 4.0 0.00 0.02 0.00 68 1022.4
20260831101242 60 190 2.0 4.0 0.00 0.02 0.00 68 1022.4
20260831101142 60 190 2.0 4.0 0.00 0.02 0.00 68 1022.4
20260831101042 60 190 2.0 4.0 0.00 0.02 0.00 67 1022.4
20260831100942 60 190 2.0 5.0 0.00 0.02 0.00 67 1022.4
20260831100842 60 190 2.0 5.0 0.00 0.02 0.00 67 1022.4
20260831100742 60 190 2.0 5.0 0.00 0.02 0.00 67 1022.5
20260831100651 60 190 3.0 5.0 0.00 0.02 0.00 67 1022.5
20260831100642 60 190 3.0 6.0 0.00 0.02 0.00 67 1022.5
20260831100542 61 190 3.0 6.0 0.00 0.02 0.00 67 1022.5
20260831100448 61 190 3.0 6.0 0.00 0.02 0.00 66 1022.4
20260831100243 61 162 3.0 6.0 0.00 0.02 0.00 66 1022.4
20260831100138 61 162 3.0 6.0 0.00 0.02 0.00 66 1022.4
20260831100038 61 162 3.0 6.0 0.00 0.02 0.00 66 1022.4
20260831095939 61 186 3.0 6.0 0.00 0.02 0.00 65 1022.4
20260831095904 61 152 3.0 6.0 0.00 0.02 0.00 65 1022.4
20260831095750 61 160 3.0 6.0 0.00 0.02 0.00 66 1022.4
20260831095438 61 172 2.0 5.0 0.00 0.02 0.00 65 1022.2
20260831095406 61 161 2.0 5.0 0.00 0.02 0.00 65 1022.2
20260831095138 61 127 1.0 4.0 0.00 0.02 0.00 65 1022.2
20260831095038 61 127 1.0 4.0 0.00 0.02 0.00 64 1022.3
20260831094938 62 127 1.0 4.0 0.00 0.02 0.00 64 1022.3
20260831094838 62 127 1.0 4.0 0.00 0.02 0.00 63 1022.3
20260831094738 62 127 1.0 4.0 0.00 0.02 0.00 63 1022.3
20260831094638 62 127 1.0 4.0 0.00 0.02 0.00 63 1022.3
20260831094538 62 127 1.0 4.0 0.00 0.02 0.00 63 1022.2
20260831094439 62 127 1.0 4.0 0.00 0.02 0.00 63 1022.2
20260831094338 62 277 1.0 4.0 0.00 0.02 0.00 63 1022.2
20260831094234 62 277 1.0 4.0 0.00 0.02 0.00 63 1022.2
20260831094134 62 277 1.0 4.0 0.00 0.02 0.00 63 1022.2
20260831094034 62 277 1.0 4.0 0.00 0.02 0.00 63 1022.2
20260831093934 62 277 1.0 4.0 0.00 0.02 0.00 63 1022.2
20260831093834 62 277 2.0 4.0 0.00 0.02 0.00 63 1022.0
20260831093745 62 277 2.0 4.0 0.00 0.02 0.00 63 1022.0
20260831093738 62 277 2.0 4.0 0.00 0.02 0.00 63 1022.0
20260831093534 62 192 1.0 4.0 0.00 0.02 0.00 64 1022.0
20260831093434 62 192 1.0 4.0 0.00 0.02 0.00 64 1022.0
20260831093334 62 192 1.0 4.0 0.00 0.02 0.00 65 1022.0
20260831093234 62 307 1.0 3.0 0.00 0.02 0.00 66 1022.0
20260831093152 62 307 1.0 3.0 0.00 0.02 0.00 66 1022.0
20260831093134 62 307 1.0 3.0 0.00 0.02 0.00 66 1021.9
20260831093041 62 307 1.0 3.0 0.00 0.02 0.00 66 1022.0
20260831092835 62 307 1.0 3.0 0.00 0.02 0.00 67 1022.0
20260831092734 62 307 0.0 3.0 0.00 0.02 0.00 67 1022.0
20260831092634 62 307 0.0 2.0 0.00 0.02 0.00 68 1022.0
20260831092541 62 307 0.0 2.0 0.00 0.02 0.00 67 1022.0
20260831092330 62 307 0.0 1.0 0.00 0.02 0.00 68 1021.9
20260831092258 62 307 0.0 1.0 0.00 0.02 0.00 68 1022.0
20260831092130 62 307 0.0 2.0 0.00 0.02 0.00 68 1022.0
20260831092030 62 307 0.0 2.0 0.00 0.02 0.00 67 1022.0
20260831091930 62 307 0.0 2.0 0.00 0.02 0.00 67 1022.0
20260831091830 62 307 1.0 2.0 0.00 0.02 0.00 67 1022.2
20260831091741 62 307 1.0 2.0 0.00 0.02 0.00 67 1022.2
20260831091735 62 307 1.0 2.0 0.00 0.02 0.00 67 1022.2
20260831091529 62 307 1.0 2.0 0.00 0.02 0.00 67 1022.0
20260831091430 62 307 1.0 2.0 0.00 0.02 0.00 67 1022.0
20260831091330 62 307 1.0 2.0 0.00 0.02 0.00 68 1022.0
20260831091230 62 307 1.0 2.0 0.00 0.02 0.00 68 1022.0
20260831091151 62 307 1.0 2.0 0.00 0.02 0.00 68 1022.0
20260831091137 62 307 1.0 2.0 0.00 0.02 0.00 68 1021.9
20260831090929 62 307 1.0 2.0 0.00 0.02 0.00 68 1021.9
20260831090830 63 307 0.0 2.0 0.00 0.02 0.00 68 1021.9
20260831090758 63 307 0.0 2.0 0.00 0.02 0.00 68 1021.9
20260831090630 63 307 0.0 2.0 0.00 0.02 0.00 68 1021.9
20260831090530 63 307 1.0 3.0 0.00 0.02 0.00 68 1022.0
20260831090427 63 307 1.0 4.0 0.00 0.02 0.00 68 1022.0
20260831090326 63 307 1.0 4.0 0.00 0.02 0.00 68 1022.0
20260831090226 63 307 1.0 4.0 0.00 0.02 0.00 68 1022.0
20260831090152 63 307 1.0 4.0 0.00 0.02 0.00 68 1022.0
20260831090126 63 307 2.0 4.0 0.00 0.02 0.00 68 1022.0
20260831090026 63 307 2.0 4.0 0.00 0.02 0.00 68 1022.0
20260831085939 63 307 2.0 4.0 0.00 0.02 0.00 68 1022.0
20260831085626 63 307 2.0 4.0 0.00 0.02 0.00 68 1021.9
20260831085526 63 307 2.0 4.0 0.00 0.02 0.00 69 1021.9
20260831085432 63 307 2.0 4.0 0.00 0.02 0.00 69 1021.9
20260831085238 63 307 2.0 4.0 0.00 0.02 0.00 69 1021.9
20260831085231 63 307 2.0 4.0 0.00 0.02 0.00 69 1021.9
20260831085033 63 307 2.0 4.0 0.00 0.02 0.00 68 1021.9
20260831084827 63 307 2.0 4.0 0.00 0.02 0.00 66 1021.9
20260831084726 63 307 2.0 4.0 0.00 0.02 0.00 66 1021.9
20260831084627 63 307 2.0 4.0 0.00 0.02 0.00 67 1021.9
20260831084522 63 307 3.0 5.0 0.00 0.02 0.00 67 1021.9
20260831084421 63 307 3.0 5.0 0.00 0.02 0.00 67 1021.9
20260831084320 63 307 3.0 5.0 0.00 0.02 0.00 67 1021.9
20260831084220 63 307 3.0 5.0 0.00 0.02 0.00 67 1021.9
20260831084149 63 307 3.0 5.0 0.00 0.02 0.00 67 1021.9
20260831084117 63 307 3.0 5.0 0.00 0.02 0.00 67 1021.9
20260831084012 63 307 3.0 5.0 0.00 0.02 0.00 68 1022.0
20260831083912 63 307 3.0 5.0 0.00 0.02 0.00 68 1022.0
20260831083812 63 307 3.0 5.0 0.00 0.02 0.00 68 1022.0
20260831083725 63 314 3.0 5.0 0.00 0.02 0.00 69 1022.0
20260831083719 63 321 3.0 5.0 0.00 0.02 0.00 69 1022.0
20260831083408 63 311 2.0 5.0 0.00 0.02 0.00 69 1022.2
20260831083308 63 311 2.0 4.0 0.00 0.02 0.00 69 1022.2
20260831083206 63 311 2.0 4.0 0.00 0.02 0.00 69 1022.2
20260831083148 63 311 2.0 4.0 0.00 0.02 0.00 69 1022.2
20260831083104 63 311 2.0 5.0 0.00 0.02 0.00 69 1022.2
20260831083000 63 311 2.0 5.0 0.00 0.02 0.00 69 1022.2
20260831082904 63 311 3.0 5.0 0.00 0.02 0.00 69 1022.2
20260831082648 63 311 2.0 5.0 0.00 0.02 0.00 69 1022.2
20260831082555 62 311 2.0 5.0 0.00 0.02 0.00 69 1022.3
20260831082456 62 311 2.0 5.0 0.00 0.02 0.00 70 1022.3
20260831082354 62 311 2.0 5.0 0.00 0.02 0.00 70 1022.3
20260831082254 62 311 2.0 5.0 0.00 0.02 0.00 70 1022.3
20260831082158 62 311 2.0 5.0 0.00 0.02 0.00 70 1022.3
20260831081900 62 280 1.0 3.0 0.00 0.02 0.00 70 1022.3
20260831081642 62 355 1.0 3.0 0.00 0.02 0.00 70 1022.3
20260831081541 62 355 1.0 3.0 0.00 0.02 0.00 70 1022.2
20260831081438 62 355 1.0 3.0 0.00 0.02 0.00 70 1022.0
20260831081336 62 355 1.0 3.0 0.00 0.02 0.00 70 1022.0
20260831081236 62 355 0.0 3.0 0.00 0.02 0.00 70 1022.2
20260831081136 62 355 0.0 3.0 0.00 0.02 0.00 70 1022.2
20260831081039 62 355 0.0 3.0 0.00 0.02 0.00 69 1022.2
20260831080839 62 355 1.0 3.0 0.00 0.02 0.00 69 1022.2
20260831080643 63 355 1.0 4.0 0.00 0.02 0.00 69 1022.2
20260831080631 63 355 1.0 4.0 0.00 0.02 0.00 69 1022.0
20260831080527 63 355 1.0 4.0 0.00 0.02 0.00 69 1022.2
20260831080424 63 355 1.0 4.0 0.00 0.02 0.00 69 1022.2
20260831080322 63 355 2.0 4.0 0.00 0.02 0.00 68 1022.2
20260831080222 63 355 2.0 4.0 0.00 0.02 0.00 68 1022.3
20260831080120 63 355 2.0 4.0 0.00 0.02 0.00 68 1022.3
20260831080023 63 355 2.0 4.0 0.00 0.02 0.00 68 1022.3
20260831075815 63 355 1.0 4.0 0.00 0.02 0.00 68 1022.3
20260831075712 63 355 1.0 4.0 0.00 0.02 0.00 68 1022.3
20260831075643 63 28 1.0 4.0 0.00 0.02 0.00 68 1022.3
20260831075612 63 28 1.0 4.0 0.00 0.02 0.00 68 1022.3
20260831075510 63 9 1.0 3.0 0.00 0.02 0.00 68 1022.4
20260831075413 63 240 1.0 3.0 0.00 0.02 0.00 67 1022.4
20260831075206 63 240 1.0 3.0 0.00 0.02 0.00 67 1022.3
20260831075143 63 240 1.0 3.0 0.00 0.02 0.00 67 1022.4
20260831075106 63 240 1.0 3.0 0.00 0.02 0.00 67 1022.4
20260831075003 63 240 1.0 3.0 0.00 0.02 0.00 67 1022.3
20260831074909 63 240 1.0 3.0 0.00 0.02 0.00 67 1022.3
20260831074702 63 240 1.0 3.0 0.00 0.02 0.00 67 1022.3
20260831074636 63 240 1.0 3.0 0.00 0.02 0.00 67 1022.4
20260831074600 63 240 1.0 3.0 0.00 0.02 0.00 67 1022.4
20260831074457 63 240 1.0 3.0 0.00 0.02 0.00 67 1022.4
20260831074351 63 240 1.0 3.0 0.00 0.02 0.00 67 1022.5
20260831074252 63 240 0.0 3.0 0.00 0.02 0.00 67 1022.5
20260831074152 63 240 0.0 2.0 0.00 0.02 0.00 67 1022.5
20260831074131 63 240 0.0 2.0 0.00 0.02 0.00 67 1022.6
20260831074053 63 112 0.0 2.0 0.00 0.02 0.00 67 1022.6
20260831073951 63 112 0.0 2.0 0.00 0.02 0.00 67 1022.5
20260831073852 63 112 0.0 2.0 0.00 0.02 0.00 67 1022.5
20260831073750 64 112 0.0 2.0 0.00 0.02 0.00 67 1022.5
20260831073650 64 112 0.0 2.0 0.00 0.02 0.00 67 1022.5
20260831073625 64 112 0.0 3.0 0.00 0.02 0.00 67 1022.5
20260831073547 64 112 0.0 3.0 0.00 0.02 0.00 67 1022.5
20260831073447 64 112 1.0 3.0 0.00 0.02 0.00 67 1022.5
20260831073240 64 112 1.0 3.0 0.00 0.02 0.00 67 1022.6
20260831073119 64 112 1.0 3.0 0.00 0.02 0.00 67 1022.6
20260831073040 64 112 1.0 3.0 0.00 0.02 0.00 67 1022.6
20260831072939 64 112 0.0 3.0 0.00 0.02 0.00 67 1022.8
20260831072847 64 112 0.0 3.0 0.00 0.02 0.00 67 1022.8
20260831072614 64 112 0.0 2.0 0.00 0.02 0.00 67 1022.6
20260831072534 64 112 0.0 2.0 0.00 0.02 0.00 66 1022.6
20260831072433 64 112 1.0 3.0 0.00 0.02 0.00 66 1022.6
20260831072334 64 112 1.0 3.0 0.00 0.02 0.00 66 1022.8
20260831072233 64 112 1.0 3.0 0.00 0.02 0.00 66 1022.8
20260831072107 64 112 1.0 3.0 0.00 0.02 0.00 66 1022.6
20260831072030 64 112 1.0 3.0 0.00 0.02 0.00 66 1022.8
20260831071927 64 112 2.0 3.0 0.00 0.02 0.00 66 1022.8
20260831071826 64 112 2.0 3.0 0.00 0.02 0.00 66 1022.8
20260831071741 64 112 2.0 3.0 0.00 0.02 0.00 66 1022.8
20260831071628 64 112 2.0 3.0 0.00 0.02 0.00 66 1022.8
20260831071422 64 112 2.0 3.0 0.00 0.02 0.00 66 1022.8
20260831071318 64 112 2.0 3.0 0.00 0.02 0.00 65 1022.9
20260831071216 64 112 2.0 3.0 0.00 0.02 0.00 65 1022.9
20260831071117 64 112 2.0 3.0 0.00 0.02 0.00 65 1022.9
20260831071054 64 112 2.0 3.0 0.00 0.02 0.00 65 1022.9
20260831071016 64 112 2.0 3.0 0.00 0.02 0.00 65 1022.8
20260831070915 64 112 1.0 3.0 0.00 0.02 0.00 65 1022.8
20260831070812 64 112 1.0 3.0 0.00 0.02 0.00 66 1022.8
20260831070709 64 112 1.0 3.0 0.00 0.02 0.00 66 1022.9
20260831070610 64 112 1.0 3.0 0.00 0.02 0.00 66 1022.8
20260831070549 64 112 1.0 3.0 0.00 0.02 0.00 66 1022.8
20260831070509 64 112 1.0 3.0 0.00 0.02 0.00 66 1022.8
20260831070410 65 112 1.0 3.0 0.00 0.02 0.00 66 1022.8
20260831070304 65 112 1.0 3.0 0.00 0.02 0.00 66 1022.8